M I D A S
Marine Information and Data Acquisition System
Tripno 1950 of the Zeeleeuw from 2010-09-01 06:23:04 to 2010-09-01 11:33:48
Back to CruiseResearch ActivitiesStationsMapUnderway DataData graphs

EquipmentUnitsComment
TimeDGPSUTC
LatitudeDGPSDM.mWGS84
LongitudeDGPSDM.mWGS84
TemperatureSBE03/SBE38deg celciusITS90
ConductivitySBE21S/mITS90
SalinitySBE21 Practical Salinity Units
ChlorophylAChelsea fluorimeterg/lCalibrated in Aceton
Missing or incorrect values are displayed as -999
Sea surface data collected by the RV Zeeleeuw from 2010-09-01 05:50:38 to 2010-09-01 11:30:41
                                                                                    Next 1000 lines
Time Latitude Longitude Temperature Conductivity Salinity ChlorophylA
2010-09-01 05:50:49 51°13.662 2°55.959 20.5457 0.340503 1.994373 -0.791624
2010-09-01 05:50:53 51°13.663 2°55.958 20.5453 0.340503 1.994373 -0.791624
2010-09-01 05:50:58 51°13.663 2°55.958 20.5457 0.340503 1.994406 -0.826448
2010-09-01 05:51:03 51°13.663 2°55.958 20.5446 0.340503 1.994439 -0.826448
2010-09-01 05:51:08 51°13.663 2°55.958 20.5451 0.340503 1.994471 -0.791624
2010-09-01 05:51:13 51°13.663 2°55.958 20.5436 0.340503 1.994471 -0.791624
2010-09-01 05:51:17 51°13.663 2°55.958 20.5426 0.340503 1.994439 -0.826448
2010-09-01 05:51:22 51°13.663 2°55.959 20.5424 0.340503 1.994471 -0.826448
2010-09-01 05:51:27 51°13.663 2°55.959 20.5397 0.340503 1.994504 -0.826448
2010-09-01 05:51:33 51°13.663 2°55.959 20.54 0.340503 1.994537 -0.791624
2010-09-01 05:51:37 51°13.663 2°55.958 20.5388 0.340503 1.994537 -0.791624
2010-09-01 05:51:42 51°13.663 2°55.958 20.5388 0.340503 1.994537 -0.791624
2010-09-01 05:51:48 51°13.663 2°55.958 20.5394 0.340503 1.99457 -0.826448
2010-09-01 05:51:53 51°13.663 2°55.958 20.541 0.340503 1.994603 -0.826448
2010-09-01 05:51:57 51°13.663 2°55.958 20.5417 0.340503 1.994603 -0.791624
2010-09-01 05:52:02 51°13.663 2°55.958 20.5399 0.340503 1.994635 -0.826448
2010-09-01 05:52:08 51°13.663 2°55.958 20.5403 0.340503 1.994668 -0.7568
2010-09-01 05:52:12 51°13.663 2°55.958 20.5419 0.340503 1.994668 -0.7568
2010-09-01 05:52:17 51°13.663 2°55.958 20.5438 0.340503 1.994635 -0.791624
2010-09-01 05:52:22 51°13.663 2°55.958 20.5444 0.340503 1.994701 -0.791624
2010-09-01 05:52:28 51°13.663 2°55.958 20.5439 0.340503 1.994734 -0.791624
2010-09-01 05:52:33 51°13.663 2°55.958 20.5446 0.340503 1.994734 -0.826448
2010-09-01 05:52:37 51°13.663 2°55.958 20.5455 0.340503 1.994766 -0.791624
2010-09-01 05:52:42 51°13.663 2°55.958 20.5456 0.340503 1.994766 -0.791624
2010-09-01 05:52:48 51°13.663 2°55.958 20.5461 0.340503 1.994766 -0.791624
2010-09-01 05:52:53 51°13.663 2°55.958 20.5455 0.340503 1.994799 -0.791624
2010-09-01 05:52:57 51°13.663 2°55.958 20.5429 0.340503 1.994799 -0.826448
2010-09-01 05:53:02 51°13.663 2°55.958 20.5421 0.340503 1.994832 -0.826448
2010-09-01 05:53:08 51°13.663 2°55.958 20.5427 0.340503 1.994865 -0.826448
2010-09-01 05:53:13 51°13.663 2°55.958 20.5428 0.340503 1.994865 -0.826448
2010-09-01 05:53:17 51°13.663 2°55.958 20.5432 0.340503 1.994865 -0.791624
2010-09-01 05:53:22 51°13.662 2°55.958 20.5415 0.340503 1.994898 -0.791624
2010-09-01 05:53:27 51°13.663 2°55.958 20.542 0.340503 1.99493 -0.791624
2010-09-01 05:53:33 51°13.662 2°55.958 20.5426 0.340503 1.99493 -0.826448
2010-09-01 05:53:37 51°13.662 2°55.958 20.5431 0.340503 1.994996 -0.826448
2010-09-01 05:53:42 51°13.662 2°55.958 20.5435 0.340503 1.994996 -0.826448
2010-09-01 05:53:48 51°13.662 2°55.958 20.5421 0.340503 1.994996 -0.791624
2010-09-01 05:53:53 51°13.662 2°55.958 20.5406 0.340503 1.994996 -0.791624
2010-09-01 05:53:57 51°13.662 2°55.958 20.5416 0.340503 1.994996 -0.791624
2010-09-01 05:54:02 51°13.662 2°55.958 20.5433 0.340503 1.995062 -0.7568
2010-09-01 05:54:08 51°13.662 2°55.958 20.5444 0.340503 1.995094 -0.826448
2010-09-01 05:54:12 51°13.663 2°55.958 20.545 0.340503 1.995094 -0.826448
2010-09-01 05:54:17 51°13.662 2°55.958 20.5461 0.340503 1.995062 -0.826448
2010-09-01 05:54:22 51°13.662 2°55.958 20.5472 0.340503 1.995094 -0.791624
2010-09-01 05:54:28 51°13.662 2°55.957 20.5463 0.340503 1.995127 -0.826448
2010-09-01 05:54:33 51°13.662 2°55.958 20.5452 0.340503 1.995127 -0.826448
2010-09-01 05:54:37 51°13.662 2°55.958 20.5467 0.340503 1.99516 -0.791624
2010-09-01 05:54:42 51°13.662 2°55.958 20.5477 0.340503 1.99516 -0.791624
2010-09-01 05:54:47 51°13.662 2°55.958 20.5488 0.340503 1.995193 -0.826448
2010-09-01 05:54:53 51°13.662 2°55.958 20.5486 0.340503 1.995193 -0.791624
2010-09-01 05:54:57 51°13.662 2°55.958 20.5496 0.340503 1.995226 -0.826448
2010-09-01 05:55:02 51°13.662 2°55.958 20.5494 0.340503 1.995226 -0.791624
2010-09-01 05:55:08 51°13.662 2°55.958 20.5504 0.340503 1.995258 -0.7568
2010-09-01 05:55:13 51°13.663 2°55.958 20.5501 0.340503 1.995258 -0.7568
2010-09-01 05:55:17 51°13.662 2°55.958 20.547 0.340503 1.995291 -0.791624
2010-09-01 05:55:21 51°13.662 2°55.958 20.5463 0.340503 1.995324 -0.791624
2010-09-01 05:55:28 51°13.662 2°55.958 20.547 0.340398 1.994709 -0.826448
2010-09-01 05:55:32 51°13.663 2°55.958 20.5471 0.340503 1.995357 -0.791624
2010-09-01 05:55:37 51°13.663 2°55.958 20.5491 0.340503 1.995357 -0.826448
2010-09-01 05:55:42 51°13.662 2°55.958 20.5499 0.340503 1.995357 -0.826448
2010-09-01 05:55:48 51°13.662 2°55.958 20.5513 0.340503 1.99539 -0.791624
2010-09-01 05:55:53 51°13.663 2°55.958 20.5493 0.340399 1.994775 -0.791624
2010-09-01 05:55:57 51°13.663 2°55.958 20.5472 0.340503 1.995423 -0.826448
2010-09-01 05:56:02 51°13.662 2°55.958 20.5483 0.340503 1.995455 -0.791624
2010-09-01 05:56:07 51°13.662 2°55.958 20.5496 0.340399 1.99484 -0.826448
2010-09-01 05:56:13 51°13.662 2°55.958 20.551 0.340399 1.99484 -0.826448
2010-09-01 05:56:17 51°13.663 2°55.958 20.5524 0.340399 1.994873 -0.791624
2010-09-01 05:56:22 51°13.662 2°55.958 20.5528 0.340399 1.994873 -0.7568
2010-09-01 05:56:28 51°13.663 2°55.958 20.5536 0.340503 1.995554 -0.826448
2010-09-01 05:56:33 51°13.662 2°55.958 20.5525 0.340399 1.994939 -0.826448
2010-09-01 05:56:37 51°13.662 2°55.958 20.5526 0.340399 1.994906 -0.791624
2010-09-01 05:56:42 51°13.662 2°55.958 20.552 0.340399 1.994906 -0.791624
2010-09-01 05:56:48 51°13.662 2°55.958 20.5524 0.340399 1.994972 -0.826448
2010-09-01 05:56:52 51°13.662 2°55.958 20.5518 0.340399 1.995005 -0.826448
2010-09-01 05:56:57 51°13.662 2°55.958 20.5519 0.340399 1.995005 -0.791624
2010-09-01 05:57:02 51°13.662 2°55.958 20.5522 0.340399 1.995005 -0.826448
2010-09-01 05:57:08 51°13.662 2°55.958 20.552 0.340503 1.995685 -0.791624
2010-09-01 05:57:13 51°13.662 2°55.958 20.5522 0.340503 1.995685 -0.791624
2010-09-01 05:57:17 51°13.662 2°55.958 20.5536 0.340399 1.995103 -0.791624
2010-09-01 05:57:22 51°13.662 2°55.958 20.5548 0.340399 1.99507 -0.7568
2010-09-01 05:57:28 51°13.662 2°55.958 20.5564 0.340399 1.995136 -0.791624
2010-09-01 05:57:33 51°13.662 2°55.958 20.5576 0.340399 1.995136 -0.826448
2010-09-01 05:57:37 51°13.663 2°55.959 20.5585 0.340399 1.995169 -0.791624
2010-09-01 05:57:42 51°13.663 2°55.959 20.5579 0.340399 1.995169 -0.791624
2010-09-01 05:57:48 51°13.662 2°55.959 20.5591 0.340399 1.995169 -0.791624
2010-09-01 05:57:53 51°13.662 2°55.959 20.5574 0.340399 1.995169 -0.7568
2010-09-01 05:57:57 51°13.662 2°55.959 20.5574 0.340399 1.995201 -0.861272
2010-09-01 05:58:02 51°13.662 2°55.959 20.5592 0.340399 1.995201 -0.826448
2010-09-01 05:58:07 51°13.662 2°55.959 20.5511 0.340399 1.995267 -0.791624
2010-09-01 05:58:13 51°13.662 2°55.959 20.5486 0.340399 1.995267 -0.791624
2010-09-01 05:58:17 51°13.662 2°55.959 20.5592 0.340399 1.995267 -0.791624
2010-09-01 05:58:22 51°13.662 2°55.959 20.5539 0.340399 1.9953 -0.791624
2010-09-01 05:58:28 51°13.662 2°55.96 20.5584 0.340399 1.995366 -0.7568
2010-09-01 05:58:33 51°13.662 2°55.959 20.5614 0.340399 1.995366 -0.791624
2010-09-01 05:58:37 51°13.662 2°55.959 20.5627 0.340399 1.995366 -0.826448
2010-09-01 05:58:42 51°13.662 2°55.959 20.5616 0.340399 1.995366 -0.826448
2010-09-01 05:58:48 51°13.662 2°55.959 20.5608 0.340399 1.995366 -0.791624
2010-09-01 05:58:52 51°13.662 2°55.959 20.5604 0.340399 1.995398 -0.791624
2010-09-01 05:58:57 51°13.662 2°55.959 20.5616 0.340399 1.995366 -0.791624
2010-09-01 05:59:02 51°13.662 2°55.96 20.5607 0.340399 1.995431 -0.791624
2010-09-01 05:59:08 51°13.662 2°55.96 20.5589 0.340399 1.995497 -0.7568
2010-09-01 05:59:13 51°13.662 2°55.959 20.5594 0.340399 1.995497 -0.7568
2010-09-01 05:59:17 51°13.662 2°55.96 20.5592 0.340399 1.995497 -0.826448
2010-09-01 05:59:22 51°13.662 2°55.96 20.5594 0.340399 1.995497 -0.791624
2010-09-01 05:59:28 51°13.662 2°55.959 20.5591 0.340399 1.995497 -0.791624
2010-09-01 05:59:33 51°13.662 2°55.959 20.5589 0.340399 1.99553 -0.791624
2010-09-01 05:59:37 51°13.662 2°55.959 20.561 0.340399 1.995563 -0.826448
2010-09-01 05:59:42 51°13.662 2°55.959 20.5618 0.340399 1.995563 -0.826448
2010-09-01 05:59:48 51°13.662 2°55.96 20.5614 0.340399 1.995563 -0.791624
2010-09-01 05:59:53 51°13.662 2°55.959 20.5597 0.340399 1.995563 -0.7568
2010-09-01 05:59:57 51°13.662 2°55.959 20.5595 0.340399 1.995595 -0.791624
2010-09-01 06:00:02 51°13.663 2°55.959 20.5604 0.340399 1.995595 -0.791624
2010-09-01 06:00:08 51°13.663 2°55.959 20.5624 0.340399 1.995661 -0.791624
2010-09-01 06:00:13 51°13.663 2°55.959 20.5615 0.340399 1.995661 -0.791624
2010-09-01 06:00:17 51°13.663 2°55.959 20.5588 0.340399 1.995661 -0.791624
2010-09-01 06:00:22 51°13.663 2°55.959 20.5606 0.340399 1.995694 -0.791624
2010-09-01 06:00:27 51°13.663 2°55.959 20.5628 0.340399 1.995727 -0.7568
2010-09-01 06:00:33 51°13.662 2°55.959 20.563 0.340399 1.99576 -0.791624
2010-09-01 06:00:37 51°13.662 2°55.96 20.5628 0.340399 1.995727 -0.7568
2010-09-01 06:00:41 51°13.662 2°55.96 20.5635 0.340399 1.995727 -0.7568
2010-09-01 06:00:47 51°13.662 2°55.96 20.5634 0.340399 1.995792 -0.791624
2010-09-01 06:00:52 51°13.662 2°55.96 20.5635 0.340399 1.995792 -0.7568
2010-09-01 06:00:57 51°13.662 2°55.959 20.5644 0.340399 1.995825 -0.791624
2010-09-01 06:01:02 51°13.661 2°55.96 20.5643 0.340399 1.995825 -0.826448
2010-09-01 06:01:08 51°13.661 2°55.96 20.5627 0.340399 1.995858 -0.826448
2010-09-01 06:01:13 51°13.661 2°55.96 20.563 0.340399 1.995858 -0.826448
2010-09-01 06:01:17 51°13.662 2°55.96 20.5635 0.340399 1.995891 -0.791624
2010-09-01 06:01:22 51°13.662 2°55.959 20.5638 0.340399 1.995891 -0.826448
2010-09-01 06:01:28 51°13.662 2°55.959 20.5638 0.340399 1.995924 -0.826448
2010-09-01 06:01:32 51°13.662 2°55.959 20.5635 0.340399 1.995924 -0.791624
2010-09-01 06:01:37 51°13.662 2°55.959 20.5625 0.340399 1.99599 -0.791624
2010-09-01 06:01:42 51°13.662 2°55.959 20.5624 0.340399 1.99599 -0.791624
2010-09-01 06:01:48 51°13.662 2°55.959 20.5624 0.340399 1.996022 -0.791624
2010-09-01 06:01:53 51°13.662 2°55.96 20.5611 0.340399 1.99599 -0.791624
2010-09-01 06:01:57 51°13.662 2°55.96 20.5633 0.340399 1.996055 -0.791624
2010-09-01 06:02:02 51°13.662 2°55.96 20.5647 0.340399 1.996055 -0.791624
2010-09-01 06:02:08 51°13.662 2°55.959 20.5644 0.340399 1.996088 -0.791624
2010-09-01 06:02:13 51°13.662 2°55.96 20.5616 0.340399 1.996088 -0.791624
2010-09-01 06:02:17 51°13.662 2°55.96 20.5633 0.340399 1.996121 -0.826448
2010-09-01 06:02:22 51°13.662 2°55.959 20.5638 0.340399 1.996121 -0.791624
2010-09-01 06:02:28 51°13.662 2°55.96 20.5653 0.340399 1.996154 -0.791624
2010-09-01 06:02:33 51°13.662 2°55.96 20.5646 0.340399 1.996187 -0.826448
2010-09-01 06:02:37 51°13.662 2°55.96 20.5638 0.340399 1.996219 -0.7568
2010-09-01 06:02:42 51°13.662 2°55.96 20.5655 0.340399 1.996219 -0.7568
2010-09-01 06:02:47 51°13.662 2°55.96 20.5658 0.340399 1.996219 -0.826448
2010-09-01 06:02:52 51°13.662 2°55.96 20.5644 0.340399 1.996252 -0.791624
2010-09-01 06:02:57 51°13.662 2°55.96 20.5644 0.340399 1.996252 -0.826448
2010-09-01 06:03:02 51°13.662 2°55.96 20.564 0.340399 1.996285 -0.826448
2010-09-01 06:03:08 51°13.662 2°55.96 20.5656 0.340399 1.996318 -0.791624
2010-09-01 06:03:13 51°13.662 2°55.96 20.5668 0.340399 1.996318 -0.791624
2010-09-01 06:03:17 51°13.662 2°55.959 20.5673 0.340399 1.996318 -0.791624
2010-09-01 06:03:22 51°13.662 2°55.96 20.5674 0.340399 1.996351 -0.791624
2010-09-01 06:03:27 51°13.662 2°55.96 20.5676 0.340399 1.996384 -0.791624
2010-09-01 06:03:32 51°13.662 2°55.96 20.5667 0.340399 1.996351 -0.791624
2010-09-01 06:03:37 51°13.662 2°55.96 20.5661 0.340399 1.99645 -0.826448
2010-09-01 06:03:41 51°13.662 2°55.96 20.5681 0.340399 1.99645 -0.826448
2010-09-01 06:03:47 51°13.662 2°55.96 20.5697 0.340399 1.996417 -0.7568
2010-09-01 06:03:52 51°13.662 2°55.96 20.5706 0.340399 1.99645 -0.791624
2010-09-01 06:03:57 51°13.662 2°55.96 20.5712 0.340399 1.996482 -0.791624
2010-09-01 06:04:02 51°13.662 2°55.96 20.5715 0.340399 1.996515 -0.791624
2010-09-01 06:04:07 51°13.662 2°55.96 20.5722 0.340399 1.996515 -0.791624
2010-09-01 06:04:12 51°13.662 2°55.96 20.5733 0.340399 1.996515 -0.791624
2010-09-01 06:04:17 51°13.662 2°55.96 20.576 0.340399 1.996548 -0.791624
2010-09-01 06:04:22 51°13.662 2°55.96 20.5729 0.340294 1.9959 -0.791624
2010-09-01 06:04:27 51°13.662 2°55.96 20.5768 0.340399 1.996581 -0.791624
2010-09-01 06:04:32 51°13.662 2°55.96 20.5721 0.340294 1.995966 -0.791624
2010-09-01 06:04:37 51°13.662 2°55.961 20.5656 0.340399 1.996614 -0.7568
2010-09-01 06:04:41 51°13.662 2°55.961 20.579 0.340399 1.996614 -0.7568
2010-09-01 06:04:47 51°13.662 2°55.961 20.5792 0.340294 1.995998 -0.791624
2010-09-01 06:04:52 51°13.662 2°55.961 20.5786 0.340294 1.996031 -0.791624
2010-09-01 06:04:57 51°13.662 2°55.961 20.584 0.340399 1.996647 -0.826448
2010-09-01 06:05:02 51°13.662 2°55.961 20.5878 0.340294 1.996064 -0.826448
2010-09-01 06:05:07 51°13.662 2°55.961 20.577 0.340294 1.996064 -0.791624
2010-09-01 06:05:12 51°13.662 2°55.961 20.5751 0.340294 1.996064 -0.791624
2010-09-01 06:05:17 51°13.662 2°55.96 20.5784 0.340294 1.996064 -0.791624
2010-09-01 06:05:22 51°13.661 2°55.961 20.57 0.340294 1.996097 -0.791624
2010-09-01 06:05:27 51°13.661 2°55.96 20.5684 0.340294 1.99613 -0.791624
2010-09-01 06:05:32 51°13.661 2°55.96 20.5837 0.340294 1.99613 -0.791624
2010-09-01 06:05:37 51°13.661 2°55.961 20.5885 0.340294 1.99613 -0.826448
2010-09-01 06:05:42 51°13.661 2°55.961 20.5812 0.340294 1.99613 -0.826448
2010-09-01 06:05:47 51°13.661 2°55.96 20.5789 0.340294 1.996163 -0.791624
2010-09-01 06:05:52 51°13.661 2°55.96 20.5751 0.340294 1.996163 -0.791624
2010-09-01 06:05:57 51°13.661 2°55.96 20.5735 0.340294 1.996196 -0.7568
2010-09-01 06:06:02 51°13.661 2°55.96 20.5733 0.340294 1.996229 -0.7568
2010-09-01 06:06:07 51°13.661 2°55.959 20.5777 0.340294 1.996261 -0.791624
2010-09-01 06:06:12 51°13.661 2°55.959 20.5434 0.340294 1.996261 -0.791624
2010-09-01 06:06:17 51°13.661 2°55.957 20.5562 0.340294 1.996294 -0.826448
2010-09-01 06:06:22 51°13.661 2°55.954 20.5491 0.340294 1.996294 -0.7568
2010-09-01 06:06:28 51°13.662 2°55.951 20.5705 0.340294 1.996327 -0.791624
2010-09-01 06:06:32 51°13.663 2°55.947 20.5889 0.340294 1.996327 -0.791624
2010-09-01 06:06:37 51°13.664 2°55.942 20.5728 0.340294 1.99636 -0.826448
2010-09-01 06:06:43 51°13.666 2°55.935 20.6042 0.340294 1.99636 -0.826448
2010-09-01 06:06:49 51°13.669 2°55.928 20.5882 0.340294 1.996393 -0.826448
2010-09-01 06:06:54 51°13.67 2°55.921 20.5774 0.340294 1.996393 -0.791624
2010-09-01 06:07:00 51°13.673 2°55.913 20.5818 0.340294 1.996393 -0.791624
2010-09-01 06:07:05 51°13.675 2°55.905 20.5906 0.340294 1.996393 -0.791624
2010-09-01 06:07:11 51°13.677 2°55.897 20.5903 0.340294 1.996426 -0.791624
2010-09-01 06:07:16 51°13.68 2°55.89 20.5833 0.340294 1.996426 -0.791624
2010-09-01 06:07:21 51°13.682 2°55.883 20.5837 0.340294 1.996492 -0.791624
2010-09-01 06:07:26 51°13.684 2°55.875 20.5902 0.340294 1.996557 -0.7568
2010-09-01 06:07:31 51°13.686 2°55.868 20.5815 0.340294 1.99659 -0.791624
2010-09-01 06:07:36 51°13.688 2°55.861 20.582 0.340294 1.996557 -0.826448
2010-09-01 06:07:41 51°13.689 2°55.854 20.5835 0.340294 1.996557 -0.791624
2010-09-01 06:07:46 51°13.691 2°55.846 20.5858 0.340294 1.996557 -0.791624
2010-09-01 06:07:51 51°13.692 2°55.839 20.5935 0.340294 1.996557 -0.791624
2010-09-01 06:07:56 51°13.694 2°55.832 20.5979 0.340294 1.996557 -0.791624
2010-09-01 06:08:01 51°13.695 2°55.824 20.5851 0.340294 1.996557 -0.826448
2010-09-01 06:08:06 51°13.696 2°55.817 20.5901 0.340294 1.996524 -0.791624
2010-09-01 06:08:11 51°13.697 2°55.809 20.5861 0.340294 1.996557 -0.826448
2010-09-01 06:08:16 51°13.698 2°55.801 20.5889 0.340294 1.996557 -0.826448
2010-09-01 06:08:21 51°13.699 2°55.793 20.5851 0.340294 1.996557 -0.826448
2010-09-01 06:08:26 51°13.699 2°55.786 20.5845 0.340294 1.996623 -0.791624
2010-09-01 06:08:31 51°13.699 2°55.778 20.5832 0.340294 1.996623 -0.826448
2010-09-01 06:08:36 51°13.699 2°55.771 20.589 0.340294 1.996623 -0.791624
2010-09-01 06:08:41 51°13.699 2°55.764 20.5928 0.340294 1.996656 -0.791624
2010-09-01 06:08:46 51°13.698 2°55.758 20.5912 0.340294 1.996656 -0.791624
2010-09-01 06:08:51 51°13.698 2°55.752 20.5946 0.340294 1.996623 -0.791624
2010-09-01 06:08:56 51°13.697 2°55.747 20.5978 0.340294 1.996623 -0.791624
2010-09-01 06:09:01 51°13.696 2°55.743 20.6019 0.340294 1.996623 -0.791624
2010-09-01 06:09:05 51°13.696 2°55.741 20.6062 0.340294 1.996689 -0.791624
2010-09-01 06:09:10 51°13.696 2°55.738 20.6128 0.340294 1.996755 -0.791624
2010-09-01 06:09:15 51°13.695 2°55.737 20.6129 0.340294 1.996755 -0.791624
2010-09-01 06:09:21 51°13.695 2°55.737 20.6184 0.340294 1.996755 -0.791624
2010-09-01 06:09:25 51°13.695 2°55.738 20.619 0.340294 1.996755 -0.791624
2010-09-01 06:09:30 51°13.695 2°55.74 20.6174 0.340294 1.996755 -0.791624
2010-09-01 06:09:34 51°13.696 2°55.742 20.6091 0.340294 1.996788 -0.826448
2010-09-01 06:09:40 51°13.697 2°55.745 20.6028 0.34019 1.996205 -0.7568
2010-09-01 06:09:45 51°13.698 2°55.747 20.5461 0.34019 1.996205 -0.7568
2010-09-01 06:09:49 51°13.698 2°55.749 20.5481 0.340294 1.996952 -0.826448
2010-09-01 06:09:54 51°13.698 2°55.751 20.5728 0.340294 1.996952 -0.791624
2010-09-01 06:09:59 51°13.698 2°55.751 20.5644 0.34019 1.996304 -0.7568
2010-09-01 06:10:04 51°13.697 2°55.751 20.5818 0.340294 1.996919 -0.791624
2010-09-01 06:10:09 51°13.695 2°55.751 20.5566 0.34019 1.996336 -0.7568
2010-09-01 06:10:13 51°13.694 2°55.75 20.6018 0.34019 1.996336 -0.7568
2010-09-01 06:10:18 51°13.692 2°55.749 20.5895 0.340294 1.997018 -0.7568
2010-09-01 06:10:23 51°13.69 2°55.748 20.5982 0.340294 1.996985 -0.826448
2010-09-01 06:10:29 51°13.687 2°55.746 20.614 0.340294 1.996952 -0.791624
2010-09-01 06:10:34 51°13.686 2°55.746 20.6139 0.340294 1.996952 -0.826448
2010-09-01 06:10:40 51°13.685 2°55.746 20.6378 0.340294 1.996952 -0.791624
2010-09-01 06:10:45 51°13.686 2°55.747 20.6358 0.340294 1.996952 -0.791624
2010-09-01 06:10:51 51°13.688 2°55.75 20.64 0.34019 1.996271 -0.791624
2010-09-01 06:10:56 51°13.69 2°55.752 20.6506 0.340294 1.996985 -0.791624
2010-09-01 06:11:01 51°13.693 2°55.754 20.6424 0.34019 1.996435 -0.826448
2010-09-01 06:11:06 51°13.696 2°55.755 20.6413 0.340294 1.997117 -0.7568
2010-09-01 06:11:11 51°13.7 2°55.756 20.6275 0.34019 1.996534 -0.826448
2010-09-01 06:11:16 51°13.703 2°55.757 20.6418 0.34019 1.996534 -0.826448
2010-09-01 06:11:21 51°13.707 2°55.757 20.6122 0.340294 1.99715 -0.826448
2010-09-01 06:11:25 51°13.71 2°55.757 20.6319 0.34019 1.996567 -0.791624
2010-09-01 06:11:30 51°13.714 2°55.756 20.6469 0.34019 1.996468 -0.791624
2010-09-01 06:11:35 51°13.718 2°55.754 20.6479 0.34019 1.996567 -0.791624
2010-09-01 06:11:40 51°13.722 2°55.751 20.6431 0.34019 1.9966 -0.7568
2010-09-01 06:11:45 51°13.726 2°55.746 20.6348 0.34019 1.9966 -0.7568
2010-09-01 06:11:49 51°13.73 2°55.743 20.6415 0.34019 1.996731 -0.791624
2010-09-01 06:11:54 51°13.734 2°55.738 20.6095 0.34019 1.996665 -0.791624
2010-09-01 06:11:59 51°13.738 2°55.732 20.6074 0.34019 1.9966 -0.791624
2010-09-01 06:12:04 51°13.742 2°55.725 20.577 0.34019 1.996501 -0.791624
2010-09-01 06:12:09 51°13.747 2°55.718 20.5732 0.34019 1.996468 -0.791624
2010-09-01 06:12:13 51°13.75 2°55.712 20.5917 0.34019 1.996468 -0.791624
2010-09-01 06:12:19 51°13.757 2°55.703 20.5387 0.34019 1.996435 -0.791624
2010-09-01 06:12:24 51°13.762 2°55.695 20.5367 0.34019 1.996501 -0.791624
2010-09-01 06:12:28 51°13.767 2°55.689 20.4981 0.34019 1.9966 -0.826448
2010-09-01 06:12:33 51°13.773 2°55.681 20.4859 0.34019 1.996698 -0.7568
2010-09-01 06:12:38 51°13.78 2°55.673 20.477 0.34019 1.996731 -0.791624
2010-09-01 06:12:43 51°13.787 2°55.666 20.4719 0.34019 1.996731 -0.791624
2010-09-01 06:12:48 51°13.794 2°55.659 20.476 0.34019 1.996698 -0.791624
2010-09-01 06:12:53 51°13.802 2°55.651 20.4904 0.34019 1.996731 -0.7568
2010-09-01 06:12:57 51°13.809 2°55.646 20.4827 0.34019 1.996764 -0.826448
2010-09-01 06:13:02 51°13.817 2°55.64 20.4817 0.34019 1.99683 -0.791624
2010-09-01 06:13:07 51°13.825 2°55.633 20.495 0.34019 1.996863 -0.826448
2010-09-01 06:13:12 51°13.834 2°55.627 20.5066 0.34019 1.996863 -0.826448
2010-09-01 06:13:17 51°13.843 2°55.621 20.5131 0.34019 1.996929 -0.791624
2010-09-01 06:13:22 51°13.852 2°55.615 20.5497 0.34019 1.997027 -0.791624
2010-09-01 06:13:27 51°13.861 2°55.608 20.5508 0.34019 1.99706 -0.791624
2010-09-01 06:13:32 51°13.87 2°55.601 20.5355 0.34019 1.99706 -0.791624
2010-09-01 06:13:37 51°13.879 2°55.595 20.527 0.34019 1.997093 -0.826448
2010-09-01 06:13:42 51°13.888 2°55.588 20.5333 0.34019 1.997093 -0.826448
2010-09-01 06:13:47 51°13.898 2°55.581 20.5452 0.34019 1.99706 -0.791624
2010-09-01 06:13:52 51°13.907 2°55.573 20.5476 0.34019 1.99706 -0.791624
2010-09-01 06:13:57 51°13.917 2°55.566 20.5417 0.34019 1.997126 -0.791624
2010-09-01 06:14:02 51°13.926 2°55.559 20.5497 0.34019 1.997126 -0.791624
2010-09-01 06:14:07 51°13.936 2°55.552 20.5697 0.34019 1.997159 -0.791624
2010-09-01 06:14:12 51°13.946 2°55.545 20.5737 0.34019 1.997159 -0.791624
2010-09-01 06:14:17 51°13.956 2°55.538 20.5634 0.340086 1.996576 -0.7568
2010-09-01 06:14:22 51°13.966 2°55.53 20.5591 0.340086 1.996609 -0.826448
2010-09-01 06:14:27 51°13.976 2°55.523 20.5617 0.340086 1.996609 -0.826448
2010-09-01 06:14:32 51°13.986 2°55.516 20.58 0.340086 1.996543 -0.7568
2010-09-01 06:14:37 51°13.997 2°55.508 20.566 0.340086 1.996609 -0.791624
2010-09-01 06:14:42 51°14.007 2°55.5 20.5471 0.340086 1.996609 -0.791624
2010-09-01 06:14:47 51°14.018 2°55.493 20.5607 0.34019 1.997324 -0.791624
2010-09-01 06:14:52 51°14.029 2°55.484 20.5485 0.340086 1.996708 -0.7568
2010-09-01 06:14:57 51°14.04 2°55.476 20.5479 0.340086 1.996741 -0.791624
2010-09-01 06:15:02 51°14.051 2°55.468 20.534 0.340086 1.996741 -0.826448
2010-09-01 06:15:07 51°14.062 2°55.46 20.5375 0.340086 1.996741 -0.791624
2010-09-01 06:15:12 51°14.073 2°55.452 20.5561 0.340086 1.996741 -0.791624
2010-09-01 06:15:17 51°14.085 2°55.444 20.5609 0.340086 1.996774 -0.791624
2010-09-01 06:15:22 51°14.096 2°55.436 20.5751 0.340086 1.996806 -0.826448
2010-09-01 06:15:27 51°14.107 2°55.427 20.5715 0.340086 1.996872 -0.791624
2010-09-01 06:15:33 51°14.121 2°55.417 20.5703 0.340086 1.996905 -0.791624
2010-09-01 06:15:37 51°14.13 2°55.409 20.5691 0.340086 1.996905 -0.791624
2010-09-01 06:15:43 51°14.143 2°55.399 20.5526 0.340086 1.996905 -0.791624
2010-09-01 06:15:49 51°14.157 2°55.388 20.5717 0.340086 1.996872 -0.791624
2010-09-01 06:15:53 51°14.166 2°55.38 20.5874 0.340086 1.996905 -0.791624
2010-09-01 06:15:59 51°14.18 2°55.369 20.5929 0.340086 1.996905 -0.791624
2010-09-01 06:16:04 51°14.192 2°55.358 20.5795 0.340086 1.996971 -0.791624
2010-09-01 06:16:09 51°14.203 2°55.348 20.5714 0.340086 1.996938 -0.791624
2010-09-01 06:16:15 51°14.217 2°55.335 20.5406 0.340086 1.996938 -0.791624
2010-09-01 06:16:20 51°14.229 2°55.324 20.5724 0.339981 1.996355 -0.826448
2010-09-01 06:16:25 51°14.241 2°55.312 20.5383 0.340086 1.996971 -0.791624
2010-09-01 06:16:29 51°14.251 2°55.303 20.5103 0.340086 1.997004 -0.791624
2010-09-01 06:16:34 51°14.263 2°55.293 20.5398 0.340086 1.996971 -0.791624
2010-09-01 06:16:39 51°14.275 2°55.281 20.5399 0.340086 1.997004 -0.826448
2010-09-01 06:16:44 51°14.287 2°55.27 20.5378 0.340086 1.997004 -0.826448
2010-09-01 06:16:49 51°14.3 2°55.259 20.574 0.340086 1.997037 -0.826448
2010-09-01 06:16:53 51°14.309 2°55.25 20.5711 0.340086 1.997037 -0.826448
2010-09-01 06:16:58 51°14.321 2°55.238 20.4956 0.339981 1.996421 -0.791624
2010-09-01 06:17:04 51°14.336 2°55.225 20.5418 0.339981 1.996454 -0.791624
2010-09-01 06:17:09 51°14.348 2°55.214 20.5634 0.339981 1.996388 -0.826448
2010-09-01 06:17:13 51°14.358 2°55.206 20.5767 0.339981 1.996388 -0.826448
2010-09-01 06:17:18 51°14.37 2°55.194 20.5592 0.339981 1.996421 -0.791624
2010-09-01 06:17:23 51°14.382 2°55.182 20.5573 0.339981 1.99652 -0.791624
2010-09-01 06:17:28 51°14.394 2°55.17 20.5632 0.339981 1.99652 -0.7568
2010-09-01 06:17:33 51°14.406 2°55.158 20.5742 0.339981 1.99652 -0.826448
2010-09-01 06:17:37 51°14.416 2°55.148 20.5864 0.339981 1.996454 -0.7568
2010-09-01 06:17:42 51°14.429 2°55.135 20.4927 0.339981 1.996454 -0.7568
2010-09-01 06:17:48 51°14.444 2°55.119 20.5481 0.339981 1.996618 -0.791624
2010-09-01 06:17:53 51°14.457 2°55.107 20.5657 0.339877 1.995904 -0.791624
2010-09-01 06:17:57 51°14.468 2°55.096 20.5653 0.339981 1.996553 -0.791624
2010-09-01 06:18:02 51°14.481 2°55.082 20.5517 0.339877 1.995969 -0.7568
2010-09-01 06:18:07 51°14.494 2°55.067 20.5132 0.339981 1.996684 -0.791624
2010-09-01 06:18:12 51°14.508 2°55.052 20.5222 0.339981 1.996684 -0.791624
2010-09-01 06:18:17 51°14.522 2°55.038 20.4502 0.339981 1.996651 -0.826448
2010-09-01 06:18:22 51°14.535 2°55.022 20.5013 0.339981 1.996651 -0.791624
2010-09-01 06:18:27 51°14.55 2°55.009 20.5255 0.339877 1.995904 -0.791624
2010-09-01 06:18:32 51°14.565 2°54.994 20.5169 0.339981 1.996684 -0.826448
2010-09-01 06:18:37 51°14.579 2°54.98 20.5348 0.339981 1.996783 -0.791624
2010-09-01 06:18:42 51°14.594 2°54.965 20.5114 0.339981 1.996783 -0.791624
2010-09-01 06:18:47 51°14.609 2°54.951 20.5558 0.339877 1.996134 -0.791624
2010-09-01 06:18:52 51°14.624 2°54.936 20.5482 0.339877 1.996101 -0.826448
2010-09-01 06:18:57 51°14.64 2°54.921 20.5659 0.339981 1.996849 -0.791624
2010-09-01 06:19:02 51°14.654 2°54.905 20.4932 0.339877 1.996233 -0.791624
2010-09-01 06:19:07 51°14.669 2°54.888 20.5182 0.339877 1.996299 -0.7568
2010-09-01 06:19:12 51°14.685 2°54.873 20.5314 0.339877 1.996299 -0.7568
2010-09-01 06:19:17 51°14.7 2°54.857 20.5298 0.339877 1.9962 -0.791624
2010-09-01 06:19:22 51°14.715 2°54.841 20.5474 0.339877 1.9962 -0.791624
2010-09-01 06:19:28 51°14.733 2°54.822 20.5117 0.339773 1.995551 -0.791624
2010-09-01 06:19:33 51°14.748 2°54.805 20.5152 0.339877 1.996332 -0.791624
2010-09-01 06:19:37 51°14.76 2°54.793 20.5445 0.339773 1.995617 -0.7568
2010-09-01 06:19:42 51°14.775 2°54.777 20.539 0.339773 1.995617 -0.7568
2010-09-01 06:19:48 51°14.793 2°54.758 20.5446 0.339773 1.995682 -0.791624
2010-09-01 06:19:53 51°14.808 2°54.742 20.5526 0.339773 1.995781 -0.791624
2010-09-01 06:19:59 51°14.826 2°54.723 20.5186 0.339877 1.996496 -0.826448
2010-09-01 06:20:05 51°14.844 2°54.704 20.5602 0.339773 1.995748 -0.826448
2010-09-01 06:20:10 51°14.858 2°54.687 20.5497 0.339877 1.996397 -0.826448
2010-09-01 06:20:16 51°14.876 2°54.668 20.5591 0.339877 1.996397 -0.826448
2010-09-01 06:20:21 51°14.89 2°54.651 20.5493 0.339773 1.995781 -0.7568
2010-09-01 06:20:26 51°14.905 2°54.634 20.543 0.339773 1.995814 -0.791624
2010-09-01 06:20:31 51°14.919 2°54.617 20.5634 0.339773 1.995847 -0.791624
2010-09-01 06:20:36 51°14.934 2°54.599 20.5565 0.339773 1.99588 -0.791624
2010-09-01 06:20:41 51°14.948 2°54.582 20.5287 0.339669 1.995264 -0.791624
2010-09-01 06:20:45 51°14.959 2°54.569 20.5683 0.339669 1.995264 -0.791624
2010-09-01 06:20:50 51°14.973 2°54.551 20.5497 0.339669 1.995231 -0.791624
2010-09-01 06:20:55 51°14.988 2°54.534 20.5358 0.339773 1.995979 -0.826448
2010-09-01 06:21:00 51°15.002 2°54.517 20.5177 0.339669 1.995231 -0.791624
2010-09-01 06:21:05 51°15.017 2°54.5 20.4977 0.339669 1.995297 -0.791624
2010-09-01 06:21:10 51°15.032 2°54.485 20.5436 0.339669 1.995198 -0.826448
2010-09-01 06:21:14 51°15.044 2°54.471 20.4978 0.339669 1.995198 -0.826448
2010-09-01 06:21:20 51°15.062 2°54.453 20.5559 0.339564 1.994647 -0.791624
2010-09-01 06:21:25 51°15.077 2°54.436 20.5539 0.339564 1.994516 -0.826448
2010-09-01 06:21:29 51°15.089 2°54.422 20.5583 0.339669 1.995297 -0.826448
2010-09-01 06:21:34 51°15.104 2°54.405 20.5745 0.339669 1.995362 -0.826448
2010-09-01 06:21:39 51°15.118 2°54.387 20.5236 0.339564 1.994779 -0.791624
2010-09-01 06:21:44 51°15.132 2°54.369 20.5588 0.339564 1.994779 -0.791624
2010-09-01 06:21:49 51°15.146 2°54.352 20.5097 0.339564 1.99468 -0.791624
2010-09-01 06:21:53 51°15.158 2°54.338 20.5585 0.339669 1.995329 -0.7568
2010-09-01 06:21:58 51°15.172 2°54.32 20.5556 0.339564 1.994582 -0.826448
2010-09-01 06:22:03 51°15.186 2°54.302 20.5637 0.339564 1.994647 -0.7568
2010-09-01 06:22:08 51°15.201 2°54.285 20.5429 0.33946 1.993998 -0.7568
2010-09-01 06:22:13 51°15.215 2°54.267 20.5449 0.33946 1.993998 -0.7568
2010-09-01 06:22:17 51°15.227 2°54.253 20.5613 0.33946 1.994064 -0.826448
2010-09-01 06:22:22 51°15.241 2°54.235 20.5379 0.33946 1.994064 -0.791624
2010-09-01 06:22:27 51°15.256 2°54.218 20.5318 0.33946 1.994064 -0.791624
2010-09-01 06:22:32 51°15.271 2°54.2 20.5463 0.33946 1.994097 -0.791624
2010-09-01 06:22:37 51°15.285 2°54.183 20.5581 0.33946 1.994097 -0.791624
2010-09-01 06:22:42 51°15.3 2°54.165 20.5646 0.33946 1.994097 -0.791624
2010-09-01 06:22:47 51°15.314 2°54.147 20.5461 0.33946 1.994031 -0.7568
2010-09-01 06:22:52 51°15.328 2°54.129 20.569 0.33946 1.994031 -0.791624
2010-09-01 06:22:57 51°15.343 2°54.112 20.5681 0.33946 1.994031 -0.791624
2010-09-01 06:23:02 51°15.358 2°54.095 20.5696 0.339356 1.993415 -0.7568
2010-09-01 06:23:07 51°15.372 2°54.077 20.5492 0.339356 1.993382 -0.791624
2010-09-01 06:23:12 51°15.387 2°54.059 20.5659 0.339356 1.993382 -0.791624
2010-09-01 06:23:17 51°15.401 2°54.042 20.5446 0.33946 1.994097 -0.791624
2010-09-01 06:23:22 51°15.416 2°54.024 20.5454 0.33946 1.99413 -0.791624
2010-09-01 06:23:27 51°15.43 2°54.006 20.5587 0.339251 1.992831 -0.791624
2010-09-01 06:23:32 51°15.445 2°53.988 20.5647 0.339356 1.993448 -0.791624
2010-09-01 06:23:37 51°15.459 2°53.97 20.5299 0.339251 1.992766 -0.791624
2010-09-01 06:23:42 51°15.474 2°53.953 20.5616 0.339251 1.992766 -0.791624
2010-09-01 06:23:47 51°15.489 2°53.936 20.5587 0.33946 1.99413 -0.826448
2010-09-01 06:23:52 51°15.503 2°53.918 20.5459 0.339251 1.992798 -0.7568
2010-09-01 06:23:57 51°15.517 2°53.9 20.5703 0.339251 1.992831 -0.826448
2010-09-01 06:24:02 51°15.532 2°53.882 20.539 0.339251 1.992798 -0.791624
2010-09-01 06:24:07 51°15.546 2°53.865 20.5222 0.339251 1.992798 -0.826448
2010-09-01 06:24:12 51°15.561 2°53.847 20.5417 0.339251 1.992798 -0.826448
2010-09-01 06:24:17 51°15.576 2°53.829 20.5528 0.339251 1.992831 -0.826448
2010-09-01 06:24:22 51°15.59 2°53.812 20.5614 0.339147 1.992083 -0.791624
2010-09-01 06:24:28 51°15.608 2°53.791 20.5497 0.339251 1.992798 -0.7568
2010-09-01 06:24:32 51°15.619 2°53.777 20.546 0.339147 1.992149 -0.791624
2010-09-01 06:24:37 51°15.634 2°53.76 20.5444 0.339147 1.992116 -0.791624
2010-09-01 06:24:42 51°15.648 2°53.742 20.5648 0.339147 1.992116 -0.791624
2010-09-01 06:24:47 51°15.663 2°53.725 20.5635 0.339043 1.991467 -0.791624
2010-09-01 06:24:52 51°15.678 2°53.708 20.5687 0.339147 1.992116 -0.791624
2010-09-01 06:24:57 51°15.692 2°53.691 20.5659 0.339147 1.992149 -0.826448
2010-09-01 06:25:02 51°15.707 2°53.674 20.5671 0.339147 1.992149 -0.7568
2010-09-01 06:25:07 51°15.722 2°53.657 20.5703 0.338938 1.990785 -0.826448
2010-09-01 06:25:12 51°15.736 2°53.64 20.5519 0.338938 1.990785 -0.826448
2010-09-01 06:25:17 51°15.75 2°53.622 20.5511 0.339147 1.992149 -0.791624
2010-09-01 06:25:21 51°15.762 2°53.609 20.5444 0.339043 1.991467 -0.826448
2010-09-01 06:25:27 51°15.779 2°53.588 20.5645 0.338938 1.990818 -0.791624
2010-09-01 06:25:32 51°15.793 2°53.571 20.5578 0.339147 1.992182 -0.7568
2010-09-01 06:25:37 51°15.808 2°53.554 20.555 0.338938 1.990818 -0.791624
2010-09-01 06:25:42 51°15.822 2°53.537 20.5606 0.338938 1.990818 -0.791624
2010-09-01 06:25:47 51°15.837 2°53.52 20.5639 0.338938 1.990851 -0.791624
2010-09-01 06:25:52 51°15.851 2°53.503 20.5751 0.338938 1.990785 -0.826448
2010-09-01 06:25:57 51°15.865 2°53.486 20.562 0.339043 1.991467 -0.826448
2010-09-01 06:26:02 51°15.88 2°53.469 20.5515 0.338834 1.990136 -0.791624
2010-09-01 06:26:07 51°15.894 2°53.452 20.5634 0.338938 1.990752 -0.791624
2010-09-01 06:26:12 51°15.909 2°53.434 20.5488 0.338938 1.990752 -0.791624
2010-09-01 06:26:17 51°15.923 2°53.418 20.5826 0.338834 1.990136 -0.7568
2010-09-01 06:26:22 51°15.938 2°53.401 20.5447 0.338834 1.990103 -0.791624
2010-09-01 06:26:28 51°15.955 2°53.38 20.5677 0.338834 1.990136 -0.791624
2010-09-01 06:26:32 51°15.967 2°53.367 20.5478 0.33873 1.989389 -0.7568
2010-09-01 06:26:37 51°15.982 2°53.35 20.5518 0.338834 1.990103 -0.7568
2010-09-01 06:26:42 51°15.996 2°53.333 20.5446 0.338834 1.990103 -0.7568
2010-09-01 06:26:47 51°16.011 2°53.317 20.5659 0.338834 1.99007 -0.791624
2010-09-01 06:26:52 51°16.026 2°53.301 20.5424 0.33873 1.989356 -0.7568
2010-09-01 06:26:57 51°16.041 2°53.285 20.5629 0.33873 1.989389 -0.791624
2010-09-01 06:27:02 51°16.057 2°53.27 20.5345 0.33873 1.989356 -0.826448
2010-09-01 06:27:07 51°16.072 2°53.254 20.545 0.338834 1.99007 -0.7568
2010-09-01 06:27:12 51°16.088 2°53.239 20.5453 0.338834 1.99007 -0.7568
2010-09-01 06:27:17 51°16.103 2°53.223 20.563 0.338626 1.988707 -0.826448
2010-09-01 06:27:22 51°16.119 2°53.21 20.5538 0.33873 1.989257 -0.826448
2010-09-01 06:27:32 51°16.151 2°53.182 20.5787 0.338626 1.988608 -0.791624
2010-09-01 06:27:37 51°16.167 2°53.168 20.5515 0.338626 1.988707 -0.791624
2010-09-01 06:27:47 51°16.199 2°53.141 20.5471 0.338626 1.988674 -0.826448
2010-09-01 06:27:52 51°16.215 2°53.127 20.5759 0.33873 1.989356 -0.7568
2010-09-01 06:27:52 51°16.215 2°53.127 20.5759 0.33873 1.989356 -0.7568
2010-09-01 06:28:06 51°16.26 2°53.09 20.5847 0.338626 1.988641 -0.791624
2010-09-01 06:28:06 51°16.26 2°53.09 20.5847 0.338626 1.988641 -0.791624
2010-09-01 06:28:16 51°16.293 2°53.063 20.552 0.338521 1.987959 -0.791624
2010-09-01 06:28:21 51°16.309 2°53.05 20.571 0.338417 1.987277 -0.826448
2010-09-01 06:28:35 51°16.354 2°53.012 20.5798 0.338313 1.986629 -0.791624
2010-09-01 06:28:40 51°16.371 2°52.999 20.5878 0.338521 1.987926 -0.791624
2010-09-01 06:28:53 51°16.412 2°52.963 20.58 0.338417 1.987179 -0.826448
2010-09-01 06:29:04 51°16.447 2°52.932 20.5739 0.338417 1.987212 -0.7568
2010-09-01 06:29:05 51°16.45 2°52.93 20.5739 0.338417 1.987212 -0.7568
2010-09-01 06:29:24 51°16.512 2°52.878 20.555 0.338417 1.987146 -0.791624
2010-09-01 06:29:29 51°16.528 2°52.865 20.6013 0.338104 1.985167 -0.826448
2010-09-01 06:29:54 51°16.609 2°52.797 20.5692 0.338208 1.985783 -0.7568
2010-09-01 06:30:08 51°16.654 2°52.76 20.5607 0.338208 1.985783 -0.791624
2010-09-01 06:30:13 51°16.67 2°52.746 20.584 0.338104 1.985069 -0.791624
2010-09-01 06:30:23 51°16.702 2°52.72 20.5647 0.338208 1.985783 -0.791624
2010-09-01 06:30:41 51°16.761 2°52.672 20.5855 0.338104 1.985036 -0.826448
2010-09-01 06:31:04 51°16.836 2°52.611 20.5919 0.338 1.984289 -0.791624
2010-09-01 06:32:19 51°17.079 2°52.411 20.5814 0.337895 1.983542 -0.791624
2010-09-01 06:32:19 51°17.079 2°52.411 20.5814 0.337895 1.983542 -0.791624
2010-09-01 06:32:29 51°17.112 2°52.385 20.5887 0.337791 1.982893 -0.7568
2010-09-01 06:33:00 51°17.212 2°52.302 20.5786 0.338 1.984158 -0.791624
2010-09-01 06:33:13 51°17.255 2°52.268 20.5971 0.337687 1.982147 -0.791624
2010-09-01 06:33:32 51°17.316 2°52.216 20.6012 0.337791 1.982828 -0.791624
2010-09-01 06:33:37 51°17.333 2°52.203 20.581 0.337687 1.982114 -0.826448
2010-09-01 06:33:42 51°17.349 2°52.19 20.5839 0.337687 1.982114 -0.826448
2010-09-01 06:33:42 51°17.349 2°52.19 20.5839 0.337687 1.982114 -0.826448
2010-09-01 06:34:00 51°17.409 2°52.143 20.604 0.337687 1.982081 -0.791624
2010-09-01 06:34:04 51°17.422 2°52.132 20.5811 0.337687 1.982081 -0.791624
2010-09-01 06:34:04 51°17.422 2°52.132 20.5811 0.337687 1.982081 -0.791624
2010-09-01 06:34:39 51°17.537 2°52.037 20.5959 0.337791 1.98273 -0.791624
2010-09-01 06:34:54 51°17.584 2°51.99 20.6095 0.337687 1.982114 -0.791624
2010-09-01 06:35:41 51°17.723 2°51.832 20.6042 0.337687 1.982016 -0.791624
2010-09-01 06:35:45 51°17.735 2°51.819 20.5995 0.337687 1.982049 -0.7568
2010-09-01 06:35:51 51°17.751 2°51.796 20.6116 0.337687 1.982114 -0.826448
2010-09-01 06:35:56 51°17.765 2°51.777 20.5918 0.337791 1.982697 -0.791624
2010-09-01 06:36:01 51°17.779 2°51.758 20.5922 0.337583 1.981465 -0.7568
2010-09-01 06:36:06 51°17.792 2°51.739 20.6094 0.337791 1.982664 -0.826448
2010-09-01 06:36:11 51°17.805 2°51.72 20.5989 0.337791 1.982664 -0.826448
2010-09-01 06:36:16 51°17.817 2°51.7 20.6028 0.337791 1.982763 -0.826448
2010-09-01 06:36:21 51°17.83 2°51.68 20.6148 0.337687 1.982016 -0.791624
2010-09-01 06:36:25 51°17.84 2°51.664 20.6298 0.337791 1.982697 -0.791624
2010-09-01 06:36:31 51°17.856 2°51.64 20.6243 0.337687 1.982016 -0.791624
2010-09-01 06:36:36 51°17.869 2°51.62 20.6039 0.337687 1.982016 -0.791624
2010-09-01 06:36:41 51°17.882 2°51.6 20.619 0.337791 1.982697 -0.791624
2010-09-01 06:36:46 51°17.895 2°51.58 20.6164 0.337791 1.982697 -0.791624
2010-09-01 06:36:51 51°17.907 2°51.56 20.6008 0.337687 1.982081 -0.7568
2010-09-01 06:36:57 51°17.922 2°51.535 20.6344 0.337791 1.982697 -0.791624
2010-09-01 06:37:01 51°17.933 2°51.519 20.6361 0.337791 1.982697 -0.826448
2010-09-01 06:37:06 51°17.945 2°51.498 20.6426 0.337895 1.983346 -0.791624
2010-09-01 06:37:11 51°17.958 2°51.478 20.6144 0.337895 1.983346 -0.791624
2010-09-01 06:37:16 51°17.97 2°51.458 20.6353 0.337687 1.982016 -0.791624
2010-09-01 06:37:21 51°17.983 2°51.437 20.6302 0.337791 1.982697 -0.7568
2010-09-01 06:37:26 51°17.996 2°51.417 20.643 0.337687 1.982049 -0.791624
2010-09-01 06:37:31 51°18.009 2°51.397 20.636 0.337791 1.982697 -0.7568
2010-09-01 06:37:36 51°18.022 2°51.376 20.6308 0.337687 1.982049 -0.791624
2010-09-01 06:37:41 51°18.034 2°51.356 20.6169 0.337687 1.982049 -0.791624
2010-09-01 06:37:45 51°18.044 2°51.339 20.6261 0.337895 1.983444 -0.7568
2010-09-01 06:37:51 51°18.059 2°51.314 20.6203 0.337687 1.982049 -0.826448
2010-09-01 06:37:56 51°18.071 2°51.294 20.6198 0.337687 1.982081 -0.791624
2010-09-01 06:38:01 51°18.084 2°51.273 20.6301 0.337895 1.983313 -0.791624
2010-09-01 06:38:06 51°18.096 2°51.253 20.6295 0.337895 1.983313 -0.791624
2010-09-01 06:38:11 51°18.109 2°51.232 20.6382 0.337791 1.982763 -0.791624
2010-09-01 06:38:16 51°18.122 2°51.212 20.642 0.337895 1.983379 -0.791624
2010-09-01 06:38:21 51°18.134 2°51.191 20.6194 0.337791 1.982828 -0.7568
2010-09-01 06:38:25 51°18.144 2°51.175 20.6362 0.337687 1.982049 -0.826448
2010-09-01 06:38:31 51°18.159 2°51.15 20.6239 0.337895 1.983477 -0.791624
2010-09-01 06:38:36 51°18.172 2°51.13 20.6444 0.337895 1.983477 -0.791624
2010-09-01 06:38:41 51°18.184 2°51.11 20.645 0.337791 1.98273 -0.826448
2010-09-01 06:38:46 51°18.197 2°51.089 20.6443 0.337791 1.982763 -0.791624
2010-09-01 06:38:51 51°18.21 2°51.068 20.6456 0.337895 1.983411 -0.826448
2010-09-01 06:38:56 51°18.222 2°51.048 20.636 0.337791 1.98273 -0.791624
2010-09-01 06:39:01 51°18.235 2°51.028 20.6387 0.337895 1.983411 -0.791624
2010-09-01 06:39:05 51°18.245 2°51.011 20.6437 0.337895 1.983411 -0.791624
2010-09-01 06:39:11 51°18.261 2°50.987 20.6365 0.337791 1.982763 -0.826448
2010-09-01 06:39:16 51°18.273 2°50.966 20.6425 0.337791 1.982697 -0.791624
2010-09-01 06:39:21 51°18.286 2°50.946 20.6383 0.338 1.98406 -0.791624
2010-09-01 06:39:26 51°18.299 2°50.925 20.6446 0.338 1.984093 -0.791624
2010-09-01 06:39:31 51°18.311 2°50.905 20.6417 0.337895 1.983411 -0.791624
2010-09-01 06:39:36 51°18.324 2°50.884 20.6395 0.337895 1.983411 -0.791624
2010-09-01 06:39:41 51°18.337 2°50.864 20.649 0.337895 1.983444 -0.826448
2010-09-01 06:39:45 51°18.347 2°50.847 20.6395 0.337895 1.983379 -0.7568
2010-09-01 06:39:51 51°18.362 2°50.822 20.6541 0.337791 1.98273 -0.791624
2010-09-01 06:39:56 51°18.374 2°50.801 20.634 0.338 1.98406 -0.791624
2010-09-01 06:40:01 51°18.387 2°50.781 20.6564 0.338 1.98406 -0.791624
2010-09-01 06:40:06 51°18.399 2°50.76 20.6403 0.338 1.98406 -0.791624
2010-09-01 06:40:11 51°18.412 2°50.739 20.6487 0.337895 1.983509 -0.826448
2010-09-01 06:40:16 51°18.425 2°50.718 20.6592 0.337895 1.983477 -0.7568
2010-09-01 06:40:21 51°18.438 2°50.698 20.6465 0.338 1.984093 -0.791624
2010-09-01 06:40:25 51°18.448 2°50.681 20.648 0.337791 1.982795 -0.826448
2010-09-01 06:40:31 51°18.463 2°50.656 20.6605 0.338 1.984125 -0.826448
2010-09-01 06:40:36 51°18.476 2°50.636 20.659 0.337895 1.983477 -0.7568
2010-09-01 06:40:41 51°18.489 2°50.615 20.6565 0.337895 1.983477 -0.7568
2010-09-01 06:40:46 51°18.501 2°50.594 20.6354 0.338 1.984093 -0.7568
2010-09-01 06:40:51 51°18.514 2°50.573 20.6515 0.337895 1.983542 -0.7568
2010-09-01 06:40:57 51°18.53 2°50.549 20.6696 0.338 1.984125 -0.791624
2010-09-01 06:41:01 51°18.54 2°50.531 20.6589 0.337895 1.983542 -0.7568
2010-09-01 06:41:06 51°18.552 2°50.511 20.6686 0.337895 1.983542 -0.7568
2010-09-01 06:41:11 51°18.565 2°50.49 20.6594 0.338 1.984125 -0.7568
2010-09-01 06:41:16 51°18.578 2°50.469 20.6678 0.338104 1.984872 -0.791624
2010-09-01 06:41:21 51°18.591 2°50.448 20.667 0.338 1.984158 -0.826448
2010-09-01 06:41:26 51°18.603 2°50.427 20.6782 0.338 1.984191 -0.791624
2010-09-01 06:41:31 51°18.616 2°50.407 20.6638 0.337895 1.983509 -0.791624
2010-09-01 06:41:36 51°18.628 2°50.386 20.668 0.337895 1.983509 -0.791624
2010-09-01 06:41:41 51°18.641 2°50.366 20.6711 0.338 1.984158 -0.791624
2010-09-01 06:41:46 51°18.654 2°50.344 20.6625 0.337895 1.983509 -0.826448
2010-09-01 06:41:51 51°18.666 2°50.324 20.6636 0.338104 1.984905 -0.791624
2010-09-01 06:41:56 51°18.679 2°50.304 20.6661 0.338 1.984191 -0.7568
2010-09-01 06:42:01 51°18.691 2°50.283 20.6694 0.338104 1.984938 -0.791624
2010-09-01 06:42:05 51°18.701 2°50.266 20.671 0.338104 1.984938 -0.791624
2010-09-01 06:42:11 51°18.717 2°50.242 20.6553 0.338 1.984158 -0.7568
2010-09-01 06:42:16 51°18.729 2°50.221 20.6764 0.338 1.984289 -0.791624
2010-09-01 06:42:21 51°18.742 2°50.201 20.671 0.337895 1.983509 -0.826448
2010-09-01 06:42:26 51°18.754 2°50.18 20.6698 0.338 1.984289 -0.791624
2010-09-01 06:42:31 51°18.767 2°50.16 20.6739 0.338 1.984158 -0.791624
2010-09-01 06:42:37 51°18.782 2°50.136 20.6549 0.338 1.984158 -0.791624
2010-09-01 06:42:41 51°18.792 2°50.119 20.681 0.338104 1.985003 -0.826448
2010-09-01 06:42:45 51°18.802 2°50.103 20.6692 0.338 1.984224 -0.826448
2010-09-01 06:42:51 51°18.817 2°50.078 20.685 0.338104 1.984938 -0.791624
2010-09-01 06:42:56 51°18.83 2°50.058 20.6854 0.338 1.984224 -0.791624
2010-09-01 06:43:01 51°18.843 2°50.037 20.669 0.338104 1.984905 -0.791624
2010-09-01 06:43:06 51°18.855 2°50.017 20.6785 0.338104 1.984905 -0.791624
2010-09-01 06:43:11 51°18.868 2°49.997 20.6735 0.338104 1.98497 -0.791624
2010-09-01 06:43:16 51°18.88 2°49.977 20.6815 0.338 1.984289 -0.7568
2010-09-01 06:43:21 51°18.893 2°49.956 20.6898 0.338104 1.984905 -0.791624
2010-09-01 06:43:25 51°18.903 2°49.94 20.671 0.338104 1.985003 -0.7568
2010-09-01 06:43:31 51°18.918 2°49.916 20.6775 0.338104 1.98497 -0.7568
2010-09-01 06:43:36 51°18.93 2°49.896 20.6931 0.338104 1.98497 -0.7568
2010-09-01 06:43:41 51°18.943 2°49.875 20.6846 0.338208 1.985652 -0.7568
2010-09-01 06:43:46 51°18.955 2°49.855 20.6809 0.338104 1.985003 -0.791624
2010-09-01 06:43:51 51°18.968 2°49.836 20.6755 0.338104 1.98497 -0.791624
2010-09-01 06:43:57 51°18.983 2°49.811 20.6939 0.338313 1.986301 -0.791624
2010-09-01 06:44:01 51°18.993 2°49.795 20.6911 0.338 1.984354 -0.791624
2010-09-01 06:44:06 51°19.005 2°49.775 20.6787 0.338 1.984354 -0.791624
2010-09-01 06:44:11 51°19.018 2°49.755 20.6837 0.338208 1.985685 -0.7568
2010-09-01 06:44:16 51°19.03 2°49.735 20.6914 0.338 1.984387 -0.791624
2010-09-01 06:44:21 51°19.043 2°49.715 20.7 0.338104 1.985036 -0.791624
2010-09-01 06:44:26 51°19.056 2°49.695 20.6844 0.338104 1.985069 -0.791624
2010-09-01 06:44:31 51°19.068 2°49.674 20.6949 0.338104 1.985003 -0.791624
2010-09-01 06:44:36 51°19.081 2°49.655 20.684 0.338104 1.985003 -0.791624
2010-09-01 06:44:41 51°19.094 2°49.635 20.6834 0.338208 1.985718 -0.791624
2010-09-01 06:44:45 51°19.104 2°49.618 20.6956 0.338208 1.985783 -0.791624
2010-09-01 06:44:51 51°19.119 2°49.594 20.6786 0.338104 1.985069 -0.791624
2010-09-01 06:44:56 51°19.132 2°49.574 20.6976 0.338208 1.985783 -0.7568
2010-09-01 06:45:01 51°19.145 2°49.554 20.6982 0.338208 1.985816 -0.7568
2010-09-01 06:45:06 51°19.157 2°49.533 20.6898 0.338208 1.985816 -0.7568
2010-09-01 06:45:11 51°19.17 2°49.513 20.7061 0.338208 1.98575 -0.791624
2010-09-01 06:45:16 51°19.183 2°49.493 20.7028 0.338208 1.98575 -0.791624
2010-09-01 06:45:21 51°19.195 2°49.473 20.6819 0.338208 1.985849 -0.791624
2010-09-01 06:45:25 51°19.205 2°49.457 20.6936 0.338104 1.985134 -0.791624
2010-09-01 06:45:31 51°19.221 2°49.434 20.6956 0.338313 1.986465 -0.791624
2010-09-01 06:45:36 51°19.234 2°49.413 20.7087 0.338313 1.986465 -0.791624
2010-09-01 06:45:41 51°19.247 2°49.393 20.7014 0.338208 1.985783 -0.791624
2010-09-01 06:45:46 51°19.259 2°49.373 20.6881 0.338313 1.986497 -0.826448
2010-09-01 06:45:51 51°19.272 2°49.353 20.7164 0.338208 1.985849 -0.791624
2010-09-01 06:45:56 51°19.285 2°49.333 20.6942 0.338208 1.985849 -0.791624
2010-09-01 06:46:01 51°19.297 2°49.312 20.7121 0.338208 1.985914 -0.826448
2010-09-01 06:46:05 51°19.308 2°49.296 20.6962 0.338208 1.985914 -0.826448
2010-09-01 06:46:11 51°19.323 2°49.271 20.6901 0.338208 1.985816 -0.826448
2010-09-01 06:46:16 51°19.335 2°49.251 20.7076 0.338313 1.986629 -0.791624
2010-09-01 06:46:21 51°19.348 2°49.231 20.7075 0.338208 1.985849 -0.791624
2010-09-01 06:46:26 51°19.36 2°49.211 20.714 0.338313 1.986563 -0.791624
2010-09-01 06:46:31 51°19.373 2°49.19 20.7091 0.338313 1.986596 -0.791624
2010-09-01 06:46:36 51°19.386 2°49.17 20.7025 0.338313 1.986596 -0.791624
2010-09-01 06:46:41 51°19.398 2°49.149 20.7097 0.338208 1.985947 -0.791624
2010-09-01 06:46:45 51°19.408 2°49.133 20.7073 0.338208 1.985947 -0.791624
2010-09-01 06:46:51 51°19.423 2°49.108 20.7195 0.338313 1.986629 -0.7568
2010-09-01 06:46:56 51°19.436 2°49.088 20.6962 0.338208 1.985914 -0.826448
2010-09-01 06:47:01 51°19.449 2°49.067 20.7054 0.338313 1.986661 -0.826448
2010-09-01 06:47:06 51°19.461 2°49.047 20.7082 0.338313 1.986661 -0.826448
2010-09-01 06:47:11 51°19.474 2°49.026 20.6997 0.338313 1.986661 -0.826448
2010-09-01 06:47:16 51°19.487 2°49.006 20.7017 0.338313 1.986629 -0.791624
2010-09-01 06:47:21 51°19.499 2°48.985 20.7133 0.338208 1.986012 -0.791624
2010-09-01 06:47:25 51°19.509 2°48.969 20.7212 0.338417 1.987409 -0.7568
2010-09-01 06:47:31 51°19.525 2°48.945 20.7131 0.338313 1.98676 -0.826448
2010-09-01 06:47:36 51°19.538 2°48.924 20.7268 0.338313 1.98676 -0.826448
2010-09-01 06:47:41 51°19.551 2°48.905 20.7018 0.338313 1.986694 -0.791624
2010-09-01 06:47:46 51°19.563 2°48.884 20.6982 0.338417 1.987409 -0.826448
2010-09-01 06:47:51 51°19.576 2°48.864 20.7155 0.338313 1.986727 -0.826448
2010-09-01 06:47:56 51°19.589 2°48.845 20.7056 0.338521 1.988025 -0.791624
2010-09-01 06:48:01 51°19.602 2°48.824 20.6949 0.338417 1.98754 -0.791624
2010-09-01 06:48:05 51°19.612 2°48.808 20.7305 0.338417 1.98754 -0.791624
2010-09-01 06:48:11 51°19.628 2°48.784 20.7062 0.338313 1.986694 -0.826448
2010-09-01 06:48:16 51°19.641 2°48.764 20.7353 0.338417 1.987474 -0.791624
2010-09-01 06:48:21 51°19.654 2°48.744 20.7196 0.338521 1.98809 -0.791624
2010-09-01 06:48:26 51°19.667 2°48.724 20.7338 0.338313 1.986825 -0.791624
2010-09-01 06:48:31 51°19.68 2°48.705 20.7126 0.338313 1.986825 -0.791624
2010-09-01 06:48:36 51°19.693 2°48.684 20.73 0.338313 1.986825 -0.791624
2010-09-01 06:48:41 51°19.706 2°48.665 20.7124 0.338417 1.987507 -0.791624
2010-09-01 06:48:45 51°19.716 2°48.648 20.7332 0.338417 1.987605 -0.791624
2010-09-01 06:48:51 51°19.733 2°48.625 20.7176 0.338417 1.987507 -0.791624
2010-09-01 06:48:56 51°19.746 2°48.605 20.725 0.338417 1.987573 -0.791624
2010-09-01 06:49:01 51°19.759 2°48.585 20.7448 0.338521 1.988254 -0.791624
2010-09-01 06:49:06 51°19.772 2°48.564 20.7217 0.338521 1.988254 -0.791624
2010-09-01 06:49:11 51°19.784 2°48.543 20.7266 0.338521 1.988254 -0.791624
2010-09-01 06:49:17 51°19.799 2°48.519 20.7396 0.338626 1.989035 -0.791624
2010-09-01 06:49:21 51°19.808 2°48.502 20.723 0.338417 1.987671 -0.7568
2010-09-01 06:49:26 51°19.821 2°48.481 20.7358 0.338521 1.98832 -0.791624
2010-09-01 06:49:31 51°19.833 2°48.46 20.7203 0.338521 1.988254 -0.791624
2010-09-01 06:49:37 51°19.848 2°48.434 20.7401 0.338521 1.988254 -0.791624
2010-09-01 06:49:41 51°19.857 2°48.417 20.7328 0.338521 1.988353 -0.791624
2010-09-01 06:49:46 51°19.869 2°48.396 20.7354 0.338521 1.988418 -0.791624
2010-09-01 06:49:51 51°19.881 2°48.374 20.7391 0.338521 1.988386 -0.791624
2010-09-01 06:49:56 51°19.894 2°48.353 20.7352 0.338521 1.988418 -0.826448
2010-09-01 06:50:01 51°19.906 2°48.332 20.7408 0.338521 1.988451 -0.826448
2010-09-01 06:50:05 51°19.916 2°48.315 20.7299 0.338521 1.988451 -0.826448
2010-09-01 06:50:11 51°19.93 2°48.289 20.7362 0.338521 1.988517 -0.7568
2010-09-01 06:50:16 51°19.942 2°48.267 20.7467 0.338521 1.988451 -0.791624
2010-09-01 06:50:21 51°19.954 2°48.246 20.7432 0.338521 1.988451 -0.826448
2010-09-01 06:50:26 51°19.966 2°48.225 20.7379 0.338521 1.988451 -0.826448
2010-09-01 06:50:31 51°19.979 2°48.203 20.7393 0.338626 1.989133 -0.791624
2010-09-01 06:50:36 51°19.99 2°48.181 20.7361 0.338626 1.989133 -0.791624
2010-09-01 06:50:41 51°20.003 2°48.161 20.7299 0.338626 1.989199 -0.791624
2010-09-01 06:50:45 51°20.012 2°48.143 20.7262 0.338626 1.989232 -0.826448
2010-09-01 06:50:51 51°20.027 2°48.118 20.7486 0.338521 1.98855 -0.791624
2010-09-01 06:50:56 51°20.039 2°48.096 20.7515 0.338626 1.989265 -0.7568
2010-09-01 06:51:01 51°20.051 2°48.075 20.7369 0.338626 1.989265 -0.791624
2010-09-01 06:51:06 51°20.062 2°48.053 20.7532 0.338626 1.989265 -0.791624
2010-09-01 06:51:11 51°20.074 2°48.032 20.7526 0.338521 1.988615 -0.791624
2010-09-01 06:51:17 51°20.088 2°48.005 20.7388 0.338521 1.988615 -0.826448
2010-09-01 06:51:21 51°20.097 2°47.987 20.7422 0.338626 1.989363 -0.826448
2010-09-01 06:51:25 51°20.106 2°47.97 20.7562 0.338521 1.988648 -0.791624
2010-09-01 06:51:31 51°20.12 2°47.944 20.7585 0.338626 1.98933 -0.826448
2010-09-01 06:51:36 51°20.131 2°47.922 20.7638 0.338626 1.98933 -0.826448
2010-09-01 06:51:41 51°20.143 2°47.901 20.7379 0.338626 1.989265 -0.791624
2010-09-01 06:51:46 51°20.154 2°47.879 20.7408 0.33873 1.990144 -0.791624
2010-09-01 06:51:51 51°20.166 2°47.858 20.7697 0.338626 1.98933 -0.826448
2010-09-01 06:51:56 51°20.178 2°47.837 20.7448 0.338626 1.989462 -0.791624
2010-09-01 06:52:01 51°20.19 2°47.816 20.7704 0.338626 1.989396 -0.791624
2010-09-01 06:52:05 51°20.199 2°47.799 20.7691 0.338626 1.989396 -0.791624
2010-09-01 06:52:11 51°20.213 2°47.773 20.7711 0.338626 1.989527 -0.826448
2010-09-01 06:52:16 51°20.225 2°47.753 20.7741 0.338834 1.990826 -0.826448
2010-09-01 06:52:21 51°20.237 2°47.732 20.7587 0.338626 1.98956 -0.791624
2010-09-01 06:52:26 51°20.248 2°47.711 20.7708 0.338626 1.989494 -0.826448
2010-09-01 06:52:31 51°20.26 2°47.69 20.7644 0.33873 1.990177 -0.826448
2010-09-01 06:52:36 51°20.272 2°47.669 20.7621 0.33873 1.990177 -0.826448
2010-09-01 06:52:41 51°20.283 2°47.648 20.7716 0.338626 1.98956 -0.791624
2010-09-01 06:52:45 51°20.293 2°47.631 20.7718 0.338626 1.989494 -0.791624
2010-09-01 06:52:51 51°20.307 2°47.606 20.7608 0.33873 1.990275 -0.791624
2010-09-01 06:52:56 51°20.319 2°47.585 20.7656 0.338626 1.989593 -0.826448
2010-09-01 06:53:01 51°20.33 2°47.564 20.7656 0.33873 1.990308 -0.791624
2010-09-01 06:53:06 51°20.342 2°47.543 20.7622 0.33873 1.990308 -0.791624
2010-09-01 06:53:11 51°20.354 2°47.521 20.7667 0.33873 1.990374 -0.791624
2010-09-01 06:53:17 51°20.368 2°47.496 20.7882 0.33873 1.990275 -0.7568
2010-09-01 06:53:21 51°20.377 2°47.48 20.7542 0.33873 1.990341 -0.826448
2010-09-01 06:53:25 51°20.386 2°47.463 20.7685 0.338626 1.989659 -0.791624
2010-09-01 06:53:31 51°20.4 2°47.438 20.7684 0.338834 1.991089 -0.826448
2010-09-01 06:53:36 51°20.412 2°47.417 20.7848 0.338834 1.991089 -0.826448
2010-09-01 06:53:41 51°20.423 2°47.396 20.7616 0.338626 1.989724 -0.791624
2010-09-01 06:53:46 51°20.435 2°47.375 20.7674 0.338834 1.991122 -0.826448
2010-09-01 06:53:51 51°20.446 2°47.354 20.7792 0.338626 1.989691 -0.791624
2010-09-01 06:53:57 51°20.46 2°47.329 20.7893 0.338834 1.991122 -0.791624
2010-09-01 06:54:01 51°20.47 2°47.313 20.7694 0.33873 1.990472 -0.7568
2010-09-01 06:54:05 51°20.479 2°47.296 20.779 0.33873 1.990472 -0.7568
2010-09-01 06:54:11 51°20.493 2°47.271 20.7861 0.33873 1.990538 -0.826448
2010-09-01 06:54:16 51°20.505 2°47.25 20.7892 0.33873 1.990505 -0.826448
2010-09-01 06:54:21 51°20.516 2°47.228 20.7767 0.338834 1.991253 -0.791624
2010-09-01 06:54:26 51°20.528 2°47.207 20.7815 0.338834 1.991187 -0.791624
2010-09-01 06:54:31 51°20.539 2°47.186 20.7894 0.33873 1.990571 -0.791624
2010-09-01 06:54:37 51°20.553 2°47.161 20.7823 0.33873 1.990571 -0.791624
2010-09-01 06:54:41 51°20.563 2°47.144 20.787 0.338834 1.99122 -0.826448
2010-09-01 06:54:46 51°20.574 2°47.123 20.7837 0.338834 1.991253 -0.791624
2010-09-01 06:54:51 51°20.586 2°47.102 20.7847 0.33873 1.990571 -0.791624
2010-09-01 06:54:56 51°20.598 2°47.082 20.7778 0.338834 1.991253 -0.7568
2010-09-01 06:55:01 51°20.61 2°47.06 20.7873 0.33873 1.990735 -0.791624
2010-09-01 06:55:06 51°20.622 2°47.04 20.7988 0.33873 1.990735 -0.791624
2010-09-01 06:55:11 51°20.633 2°47.019 20.7859 0.33873 1.990571 -0.7568
2010-09-01 06:55:16 51°20.645 2°46.998 20.7972 0.338938 1.9921 -0.7568
2010-09-01 06:55:21 51°20.657 2°46.977 20.7973 0.33873 1.990669 -0.791624
2010-09-01 06:55:25 51°20.666 2°46.96 20.787 0.338938 1.992034 -0.791624
2010-09-01 06:55:31 51°20.68 2°46.935 20.7699 0.338834 1.991418 -0.7568
2010-09-01 06:55:36 51°20.692 2°46.914 20.8083 0.338834 1.991418 -0.7568
2010-09-01 06:55:41 51°20.704 2°46.893 20.7915 0.338938 1.992001 -0.7568
2010-09-01 06:55:46 51°20.716 2°46.872 20.8043 0.338834 1.991418 -0.7568
2010-09-01 06:55:51 51°20.728 2°46.852 20.796 0.338834 1.991385 -0.791624
2010-09-01 06:55:57 51°20.742 2°46.826 20.8026 0.338834 1.99145 -0.791624
2010-09-01 06:56:01 51°20.752 2°46.81 20.7941 0.338834 1.991418 -0.826448
2010-09-01 06:56:05 51°20.761 2°46.793 20.8027 0.338834 1.991418 -0.826448
2010-09-01 06:56:11 51°20.776 2°46.768 20.8065 0.338834 1.991483 -0.826448
2010-09-01 06:56:16 51°20.787 2°46.747 20.7924 0.33873 1.990801 -0.791624
2010-09-01 06:56:21 51°20.799 2°46.726 20.7934 0.338834 1.991516 -0.791624
2010-09-01 06:56:26 51°20.811 2°46.705 20.7986 0.33873 1.990801 -0.791624
2010-09-01 06:56:31 51°20.823 2°46.684 20.7969 0.338938 1.992199 -0.791624
2010-09-01 06:56:36 51°20.835 2°46.663 20.8064 0.338938 1.992199 -0.791624
2010-09-01 06:56:41 51°20.847 2°46.642 20.8145 0.33873 1.990867 -0.826448
2010-09-01 06:56:45 51°20.857 2°46.626 20.815 0.338834 1.991483 -0.791624
2010-09-01 06:56:51 51°20.871 2°46.601 20.8193 0.339043 1.992947 -0.7568
2010-09-01 06:56:56 51°20.883 2°46.581 20.8011 0.33873 1.9909 -0.791624
2010-09-01 06:57:01 51°20.895 2°46.559 20.8149 0.338938 1.992297 -0.791624
2010-09-01 06:57:06 51°20.907 2°46.538 20.8103 0.338938 1.992297 -0.791624
2010-09-01 06:57:11 51°20.919 2°46.517 20.8028 0.338834 1.991582 -0.7568
2010-09-01 06:57:16 51°20.931 2°46.497 20.7993 0.338938 1.99233 -0.7568
2010-09-01 06:57:21 51°20.942 2°46.475 20.808 0.33873 1.990932 -0.791624
2010-09-01 06:57:25 51°20.952 2°46.459 20.8209 0.339043 1.992914 -0.791624
2010-09-01 06:57:31 51°20.966 2°46.434 20.801 0.338834 1.991681 -0.791624
2010-09-01 06:57:36 51°20.978 2°46.413 20.8196 0.338834 1.991681 -0.791624
2010-09-01 06:57:41 51°20.99 2°46.392 20.8193 0.338938 1.99233 -0.791624
2010-09-01 06:57:46 51°21.002 2°46.371 20.8196 0.338938 1.992396 -0.791624
2010-09-01 06:57:51 51°21.014 2°46.35 20.8236 0.338938 1.992396 -0.7568
2010-09-01 06:57:57 51°21.029 2°46.325 20.828 0.338938 1.992462 -0.7568
2010-09-01 06:58:01 51°21.038 2°46.308 20.8174 0.33873 1.991097 -0.7568
2010-09-01 06:58:05 51°21.048 2°46.292 20.8329 0.33873 1.991097 -0.7568
2010-09-01 06:58:11 51°21.062 2°46.267 20.8117 0.338938 1.992396 -0.791624
2010-09-01 06:58:16 51°21.074 2°46.246 20.8261 0.338938 1.992528 -0.7568
2010-09-01 06:58:21 51°21.086 2°46.225 20.8077 0.338938 1.992396 -0.791624
2010-09-01 06:58:26 51°21.098 2°46.204 20.8174 0.338834 1.991812 -0.791624
2010-09-01 06:58:31 51°21.111 2°46.184 20.825 0.338938 1.992462 -0.791624
2010-09-01 06:58:36 51°21.123 2°46.163 20.8296 0.338938 1.992462 -0.791624
2010-09-01 06:58:41 51°21.135 2°46.142 20.8297 0.338938 1.992495 -0.791624
2010-09-01 06:58:45 51°21.145 2°46.125 20.8331 0.338938 1.992528 -0.826448
2010-09-01 06:58:51 51°21.159 2°46.099 20.8383 0.338938 1.992561 -0.7568
2010-09-01 06:58:56 51°21.171 2°46.078 20.8316 0.338938 1.992561 -0.7568
2010-09-01 06:59:01 51°21.183 2°46.058 20.82 0.338834 1.991812 -0.791624
2010-09-01 06:59:06 51°21.196 2°46.037 20.8284 0.338834 1.991812 -0.791624
2010-09-01 06:59:11 51°21.208 2°46.016 20.8286 0.339043 1.993309 -0.791624
2010-09-01 06:59:17 51°21.223 2°45.991 20.8365 0.338938 1.992626 -0.7568
2010-09-01 06:59:21 51°21.233 2°45.974 20.8189 0.338938 1.992594 -0.791624
2010-09-01 06:59:26 51°21.245 2°45.953 20.8099 0.338834 1.991944 -0.7568
2010-09-01 06:59:31 51°21.257 2°45.932 20.8466 0.338938 1.992659 -0.791624
2010-09-01 06:59:36 51°21.27 2°45.912 20.8405 0.338938 1.992659 -0.791624
2010-09-01 06:59:41 51°21.281 2°45.89 20.8394 0.338834 1.99201 -0.791624
2010-09-01 06:59:46 51°21.294 2°45.87 20.8298 0.339043 1.993375 -0.826448
2010-09-01 06:59:51 51°21.306 2°45.848 20.8373 0.338834 1.992108 -0.791624
2010-09-01 06:59:56 51°21.318 2°45.828 20.8452 0.338938 1.992692 -0.791624
2010-09-01 07:00:01 51°21.33 2°45.806 20.8393 0.339043 1.993441 -0.791624
2010-09-01 07:00:05 51°21.34 2°45.789 20.8463 0.339043 1.993441 -0.791624
2010-09-01 07:00:11 51°21.355 2°45.764 20.8419 0.338938 1.992725 -0.791624
2010-09-01 07:00:16 51°21.367 2°45.743 20.8445 0.338938 1.992824 -0.791624
2010-09-01 07:00:21 51°21.38 2°45.722 20.843 0.338938 1.992791 -0.791624
2010-09-01 07:00:26 51°21.392 2°45.701 20.8438 0.338938 1.99289 -0.791624
2010-09-01 07:00:31 51°21.405 2°45.68 20.8553 0.339043 1.993441 -0.791624
2010-09-01 07:00:37 51°21.419 2°45.654 20.8375 0.339043 1.993441 -0.791624
2010-09-01 07:00:41 51°21.429 2°45.637 20.8499 0.339043 1.993507 -0.791624
2010-09-01 07:00:45 51°21.439 2°45.621 20.8428 0.339043 1.993507 -0.791624
2010-09-01 07:00:51 51°21.454 2°45.596 20.8431 0.339043 1.993606 -0.791624
2010-09-01 07:00:56 51°21.466 2°45.574 20.8698 0.339043 1.993507 -0.791624
2010-09-01 07:01:01 51°21.478 2°45.553 20.8317 0.338938 1.992956 -0.7568
2010-09-01 07:01:06 51°21.49 2°45.531 20.8527 0.338938 1.992956 -0.7568
2010-09-01 07:01:11 51°21.502 2°45.51 20.8488 0.339043 1.993606 -0.791624
2010-09-01 07:01:16 51°21.513 2°45.487 20.8531 0.338938 1.993054 -0.791624
2010-09-01 07:01:21 51°21.525 2°45.465 20.8358 0.339043 1.993606 -0.791624
2010-09-01 07:01:25 51°21.534 2°45.447 20.8481 0.338938 1.992923 -0.826448
2010-09-01 07:01:31 51°21.548 2°45.421 20.8164 0.339043 1.993638 -0.7568
2010-09-01 07:01:36 51°21.559 2°45.399 20.8585 0.339043 1.993638 -0.7568
2010-09-01 07:01:41 51°21.571 2°45.377 20.8454 0.339147 1.994288 -0.791624
2010-09-01 07:01:46 51°21.582 2°45.354 20.8621 0.338938 1.993054 -0.791624
2010-09-01 07:01:51 51°21.594 2°45.332 20.864 0.339043 1.993704 -0.791624
2010-09-01 07:01:56 51°21.605 2°45.309 20.8546 0.338938 1.993054 -0.791624
2010-09-01 07:02:01 51°21.617 2°45.287 20.8597 0.338938 1.993054 -0.826448
2010-09-01 07:02:05 51°21.626 2°45.27 20.8645 0.338938 1.993054 -0.826448
2010-09-01 07:02:11 51°21.64 2°45.243 20.8629 0.338938 1.993054 -0.826448
2010-09-01 07:02:16 51°21.651 2°45.221 20.864 0.339043 1.993737 -0.7568
2010-09-01 07:02:21 51°21.663 2°45.199 20.8612 0.339043 1.993803 -0.791624
2010-09-01 07:02:26 51°21.675 2°45.177 20.8637 0.339043 1.993836 -0.791624
2010-09-01 07:02:31 51°21.686 2°45.154 20.8739 0.339043 1.993869 -0.7568
2010-09-01 07:02:37 51°21.7 2°45.127 20.8599 0.339043 1.993869 -0.7568
2010-09-01 07:02:41 51°21.709 2°45.109 20.8591 0.338938 1.993153 -0.7568
2010-09-01 07:02:45 51°21.718 2°45.091 20.8565 0.339043 1.993869 -0.791624
2010-09-01 07:02:51 51°21.732 2°45.064 20.8664 0.339043 1.993869 -0.791624
2010-09-01 07:02:57 51°21.746 2°45.038 20.8602 0.339043 1.993836 -0.791624
2010-09-01 07:03:01 51°21.755 2°45.02 20.8527 0.339147 1.994651 -0.791624
2010-09-01 07:03:06 51°21.766 2°44.997 20.871 0.339147 1.994651 -0.791624
2010-09-01 07:03:11 51°21.778 2°44.975 20.8775 0.339043 1.993935 -0.7568
2010-09-01 07:03:16 51°21.789 2°44.952 20.856 0.338938 1.993285 -0.791624
2010-09-01 07:03:21 51°21.8 2°44.93 20.8725 0.339043 1.994001 -0.791624
2010-09-01 07:03:25 51°21.809 2°44.912 20.8628 0.339043 1.993935 -0.7568
2010-09-01 07:03:31 51°21.822 2°44.885 20.8654 0.339043 1.993968 -0.791624
2010-09-01 07:03:36 51°21.833 2°44.863 20.8677 0.339043 1.993968 -0.791624
2010-09-01 07:03:41 51°21.844 2°44.841 20.8698 0.339147 1.994684 -0.826448
2010-09-01 07:03:46 51°21.855 2°44.818 20.8786 0.339043 1.994001 -0.7568
2010-09-01 07:03:51 51°21.866 2°44.796 20.8848 0.339147 1.994684 -0.791624
2010-09-01 07:03:56 51°21.877 2°44.775 20.8867 0.339147 1.994717 -0.791624
2010-09-01 07:04:01 51°21.888 2°44.752 20.869 0.339043 1.994067 -0.7568
2010-09-01 07:04:05 51°21.897 2°44.735 20.8805 0.339043 1.994067 -0.7568
2010-09-01 07:04:11 51°21.91 2°44.709 20.8911 0.339147 1.994717 -0.791624
2010-09-01 07:04:16 51°21.921 2°44.687 20.8981 0.338938 1.993384 -0.791624
2010-09-01 07:04:21 51°21.932 2°44.665 20.9008 0.339251 1.995466 -0.791624
2010-09-01 07:04:26 51°21.942 2°44.643 20.8973 0.339043 1.994232 -0.791624
2010-09-01 07:04:31 51°21.954 2°44.622 20.8682 0.339043 1.994166 -0.7568
2010-09-01 07:04:37 51°21.966 2°44.595 20.8795 0.339043 1.994166 -0.7568
2010-09-01 07:04:41 51°21.975 2°44.578 20.9028 0.339147 1.994849 -0.7568
2010-09-01 07:04:46 51°21.986 2°44.556 20.8908 0.339043 1.9941 -0.791624
2010-09-01 07:04:51 51°21.997 2°44.535 20.8997 0.339251 1.995532 -0.791624
2010-09-01 07:04:57 51°22.011 2°44.509 20.8917 0.339043 1.994265 -0.826448
2010-09-01 07:05:01 51°22.019 2°44.492 20.8854 0.339043 1.994232 -0.826448
2010-09-01 07:05:06 51°22.03 2°44.47 20.899 0.339043 1.994232 -0.826448
2010-09-01 07:05:11 51°22.041 2°44.449 20.8871 0.339147 1.994948 -0.826448
2010-09-01 07:05:16 51°22.052 2°44.427 20.8829 0.339043 1.994265 -0.791624
2010-09-01 07:05:21 51°22.064 2°44.405 20.9055 0.339043 1.994265 -0.791624
2010-09-01 07:05:25 51°22.072 2°44.388 20.8802 0.339147 1.995112 -0.791624
2010-09-01 07:05:31 51°22.085 2°44.362 20.906 0.339147 1.994981 -0.7568
2010-09-01 07:05:36 51°22.096 2°44.341 20.895 0.339147 1.994981 -0.7568
2010-09-01 07:05:41 51°22.107 2°44.319 20.9069 0.339043 1.994396 -0.791624
2010-09-01 07:05:46 51°22.119 2°44.298 20.9054 0.339147 1.995047 -0.791624
2010-09-01 07:05:51 51°22.13 2°44.276 20.8945 0.339147 1.995145 -0.7568
2010-09-01 07:05:56 51°22.141 2°44.255 20.9157 0.339147 1.995145 -0.7568
2010-09-01 07:06:01 51°22.152 2°44.233 20.9049 0.338938 1.993779 -0.791624
2010-09-01 07:06:05 51°22.16 2°44.215 20.9213 0.338938 1.993779 -0.791624
2010-09-01 07:06:11 51°22.174 2°44.19 20.8876 0.339251 1.995796 -0.7568
2010-09-01 07:06:16 51°22.185 2°44.168 20.9033 0.339147 1.99531 -0.826448
2010-09-01 07:06:21 51°22.197 2°44.147 20.9049 0.339043 1.994495 -0.791624
2010-09-01 07:06:26 51°22.207 2°44.125 20.8879 0.339147 1.995343 -0.791624
2010-09-01 07:06:31 51°22.218 2°44.104 20.9153 0.339147 1.995244 -0.791624
2010-09-01 07:06:36 51°22.23 2°44.082 20.8787 0.339147 1.995244 -0.791624
2010-09-01 07:06:41 51°22.24 2°44.06 20.9082 0.339147 1.995343 -0.791624
2010-09-01 07:06:45 51°22.249 2°44.043 20.9138 0.339147 1.995277 -0.791624
2010-09-01 07:06:51 51°22.262 2°44.017 20.9134 0.339147 1.995343 -0.791624
2010-09-01 07:06:56 51°22.274 2°43.996 20.9144 0.339147 1.99531 -0.791624
2010-09-01 07:07:01 51°22.285 2°43.974 20.899 0.339147 1.99531 -0.826448
2010-09-01 07:07:06 51°22.296 2°43.953 20.8945 0.339147 1.99531 -0.826448
2010-09-01 07:07:11 51°22.307 2°43.931 20.9156 0.339251 1.996159 -0.791624
2010-09-01 07:07:17 51°22.32 2°43.905 20.908 0.339043 1.994726 -0.7568
2010-09-01 07:07:21 51°22.329 2°43.888 20.903 0.339147 1.995442 -0.791624
2010-09-01 07:07:25 51°22.338 2°43.871 20.9232 0.339043 1.994693 -0.791624
2010-09-01 07:07:31 51°22.351 2°43.845 20.9078 0.339147 1.995607 -0.791624
2010-09-01 07:07:36 51°22.362 2°43.824 20.9144 0.339147 1.995607 -0.791624
2010-09-01 07:07:41 51°22.373 2°43.802 20.9089 0.339043 1.994792 -0.791624
2010-09-01 07:07:46 51°22.384 2°43.781 20.9269 0.339043 1.994957 -0.791624
2010-09-01 07:07:51 51°22.395 2°43.759 20.9087 0.339043 1.994858 -0.791624
2010-09-01 07:07:56 51°22.405 2°43.737 20.9095 0.339251 1.996324 -0.826448
2010-09-01 07:08:01 51°22.417 2°43.716 20.9126 0.339147 1.995574 -0.7568
2010-09-01 07:08:05 51°22.426 2°43.699 20.9247 0.339147 1.995574 -0.7568
2010-09-01 07:08:11 51°22.439 2°43.673 20.9238 0.339147 1.995673 -0.791624
2010-09-01 07:08:16 51°22.45 2°43.652 20.9099 0.339147 1.99564 -0.791624
2010-09-01 07:08:21 51°22.461 2°43.63 20.9328 0.339147 1.995706 -0.791624
2010-09-01 07:08:26 51°22.472 2°43.608 20.9186 0.339251 1.99639 -0.826448
2010-09-01 07:08:31 51°22.483 2°43.586 20.9286 0.339147 1.995739 -0.791624
2010-09-01 07:08:37 51°22.497 2°43.562 20.9283 0.339147 1.995739 -0.791624
2010-09-01 07:08:41 51°22.505 2°43.545 20.9244 0.339147 1.99564 -0.7568
2010-09-01 07:08:46 51°22.515 2°43.526 20.9248 0.339251 1.996456 -0.826448
2010-09-01 07:08:51 51°22.525 2°43.508 20.9358 0.339147 1.995838 -0.791624
2010-09-01 07:08:57 51°22.536 2°43.488 20.941 0.339147 1.995904 -0.791624
2010-09-01 07:09:01 51°22.543 2°43.476 20.9345 0.339251 1.996621 -0.791624
2010-09-01 07:09:06 51°22.551 2°43.461 20.9481 0.339251 1.996621 -0.791624
2010-09-01 07:09:11 51°22.559 2°43.447 20.9364 0.339147 1.995937 -0.791624
2010-09-01 07:09:16 51°22.566 2°43.434 20.9462 0.338939 1.994604 -0.826448
2010-09-01 07:09:21 51°22.573 2°43.422 20.9365 0.339147 1.995871 -0.826448
2010-09-01 07:09:25 51°22.578 2°43.412 20.9586 0.339251 1.996687 -0.791624
2010-09-01 07:09:31 51°22.586 2°43.399 20.9599 0.339147 1.996003 -0.791624
2010-09-01 07:09:36 51°22.593 2°43.388 20.9472 0.339147 1.996003 -0.791624
2010-09-01 07:09:41 51°22.599 2°43.378 20.9446 0.339147 1.996003 -0.791624
2010-09-01 07:09:46 51°22.605 2°43.369 20.9616 0.339147 1.995937 -0.7568
2010-09-01 07:09:51 51°22.61 2°43.36 20.963 0.339251 1.99672 -0.791624
2010-09-01 07:09:56 51°22.616 2°43.352 20.968 0.339147 1.996069 -0.7568
2010-09-01 07:10:01 51°22.621 2°43.345 20.9629 0.339147 1.996036 -0.791624
2010-09-01 07:10:05 51°22.624 2°43.338 20.9767 0.339147 1.996036 -0.791624
2010-09-01 07:10:11 51°22.63 2°43.33 20.9721 0.339251 1.99672 -0.7568
2010-09-01 07:10:16 51°22.635 2°43.323 20.9706 0.339147 1.996069 -0.791624
2010-09-01 07:10:21 51°22.639 2°43.317 20.9675 0.339147 1.996003 -0.791624
2010-09-01 07:10:26 51°22.644 2°43.311 20.9631 0.339251 1.996687 -0.826448
2010-09-01 07:10:31 51°22.648 2°43.305 20.9671 0.339251 1.99672 -0.791624
2010-09-01 07:10:36 51°22.651 2°43.301 20.9738 0.339251 1.99672 -0.791624
2010-09-01 07:10:41 51°22.655 2°43.297 20.9733 0.339147 1.996102 -0.791624
2010-09-01 07:10:45 51°22.657 2°43.295 20.9758 0.339147 1.996102 -0.791624
2010-09-01 07:10:51 51°22.66 2°43.293 20.9621 0.339147 1.996102 -0.826448
2010-09-01 07:10:56 51°22.662 2°43.293 20.9706 0.339147 1.996135 -0.791624
2010-09-01 07:11:01 51°22.664 2°43.293 20.972 0.339147 1.996135 -0.826448
2010-09-01 07:11:06 51°22.666 2°43.293 20.9565 0.339147 1.996135 -0.826448
2010-09-01 07:11:11 51°22.667 2°43.294 20.9656 0.339147 1.996202 -0.791624
2010-09-01 07:11:16 51°22.668 2°43.296 20.9741 0.339147 1.996202 -0.826448
2010-09-01 07:11:21 51°22.668 2°43.298 20.975 0.339251 1.996885 -0.826448
2010-09-01 07:11:25 51°22.668 2°43.299 20.9833 0.339251 1.996918 -0.826448
2010-09-01 07:11:31 51°22.669 2°43.302 20.9815 0.339147 1.996367 -0.791624
2010-09-01 07:11:36 51°22.67 2°43.303 20.9895 0.339147 1.996367 -0.791624
2010-09-01 07:11:41 51°22.671 2°43.304 20.9868 0.339043 1.995716 -0.7568
2010-09-01 07:11:46 51°22.672 2°43.305 20.9914 0.339043 1.995683 -0.826448
2010-09-01 07:11:51 51°22.673 2°43.306 20.9814 0.339147 1.996268 -0.791624
2010-09-01 07:11:56 51°22.674 2°43.307 20.985 0.339251 1.996951 -0.791624
2010-09-01 07:12:01 51°22.675 2°43.308 20.9953 0.339147 1.996367 -0.791624
2010-09-01 07:12:05 51°22.676 2°43.308 20.9933 0.339147 1.996367 -0.791624
2010-09-01 07:12:11 51°22.677 2°43.31 20.9901 0.339251 1.99705 -0.791624
2010-09-01 07:12:16 51°22.678 2°43.31 20.978 0.339147 1.996433 -0.791624
2010-09-01 07:12:21 51°22.679 2°43.311 20.9961 0.339251 1.99705 -0.791624
2010-09-01 07:12:26 51°22.68 2°43.313 20.9831 0.339251 1.997083 -0.791624
2010-09-01 07:12:31 51°22.681 2°43.314 20.9896 0.339251 1.997083 -0.791624
2010-09-01 07:12:36 51°22.682 2°43.315 20.9871 0.339251 1.997083 -0.791624
2010-09-01 07:12:41 51°22.683 2°43.316 20.9978 0.339251 1.997083 -0.826448
2010-09-01 07:12:45 51°22.684 2°43.317 21.0005 0.339251 1.99705 -0.791624
2010-09-01 07:12:51 51°22.685 2°43.319 20.9927 0.339356 1.997734 -0.791624
2010-09-01 07:12:56 51°22.686 2°43.32 20.9878 0.339251 1.997083 -0.791624
2010-09-01 07:13:01 51°22.686 2°43.321 21.0092 0.339147 1.996433 -0.7568
2010-09-01 07:13:06 51°22.687 2°43.322 20.9946 0.339147 1.996433 -0.7568
2010-09-01 07:13:11 51°22.688 2°43.323 20.9959 0.339147 1.996499 -0.791624
2010-09-01 07:13:16 51°22.689 2°43.324 20.9933 0.339043 1.995815 -0.791624
2010-09-01 07:13:21 51°22.69 2°43.325 21.0026 0.339147 1.996532 -0.7568
2010-09-01 07:13:25 51°22.69 2°43.326 21.0083 0.339043 1.995848 -0.826448
2010-09-01 07:13:31 51°22.691 2°43.327 20.9998 0.339147 1.996532 -0.791624
2010-09-01 07:13:36 51°22.692 2°43.328 21.0067 0.339147 1.996532 -0.791624
2010-09-01 07:13:41 51°22.693 2°43.33 21.0124 0.339147 1.996565 -0.791624
2010-09-01 07:13:46 51°22.694 2°43.33 21.0086 0.339147 1.996631 -0.791624
2010-09-01 07:13:51 51°22.695 2°43.331 20.9961 0.339147 1.996697 -0.791624
2010-09-01 07:13:57 51°22.696 2°43.331 21.0079 0.339147 1.99673 -0.826448
2010-09-01 07:14:01 51°22.697 2°43.332 20.9958 0.339147 1.996763 -0.826448
2010-09-01 07:14:05 51°22.697 2°43.333 20.9948 0.339147 1.996763 -0.826448
2010-09-01 07:14:11 51°22.698 2°43.334 21.005 0.339251 1.997447 -0.826448
2010-09-01 07:14:16 51°22.699 2°43.335 21.0048 0.339147 1.996829 -0.791624
2010-09-01 07:14:21 51°22.7 2°43.336 21.007 0.339043 1.996178 -0.791624
2010-09-01 07:14:26 51°22.7 2°43.337 21.0028 0.339043 1.996178 -0.826448
2010-09-01 07:14:31 51°22.701 2°43.338 21.0143 0.339147 1.996862 -0.826448
2010-09-01 07:14:36 51°22.702 2°43.339 21.0172 0.339147 1.996862 -0.826448
2010-09-01 07:14:41 51°22.703 2°43.34 21.0153 0.339147 1.996895 -0.791624
2010-09-01 07:14:45 51°22.704 2°43.34 21.019 0.339147 1.996895 -0.791624
2010-09-01 07:14:51 51°22.704 2°43.341 21.0155 0.339147 1.996928 -0.826448
2010-09-01 07:14:56 51°22.706 2°43.342 21.0074 0.339043 1.996278 -0.791624
2010-09-01 07:15:01 51°22.706 2°43.342 21.0092 0.339147 1.997027 -0.791624
2010-09-01 07:15:06 51°22.707 2°43.343 21.0187 0.339147 1.997027 -0.791624
2010-09-01 07:15:11 51°22.708 2°43.343 21.0199 0.339251 1.997678 -0.791624
2010-09-01 07:15:17 51°22.709 2°43.344 21.0102 0.339147 1.99706 -0.791624
2010-09-01 07:15:21 51°22.71 2°43.345 21.0153 0.339147 1.997027 -0.7568
2010-09-01 07:15:26 51°22.71 2°43.345 21.0167 0.339147 1.99706 -0.7568
2010-09-01 07:15:31 51°22.711 2°43.346 21.0131 0.339147 1.997094 -0.791624
2010-09-01 07:15:37 51°22.712 2°43.346 21.0171 0.339147 1.997094 -0.791624
2010-09-01 07:15:41 51°22.713 2°43.347 21.019 0.339147 1.997127 -0.791624
2010-09-01 07:15:46 51°22.714 2°43.347 21.0212 0.339147 1.997094 -0.791624
2010-09-01 07:15:51 51°22.715 2°43.348 21.0236 0.339147 1.997127 -0.791624
2010-09-01 07:15:57 51°22.716 2°43.349 21.019 0.339147 1.99716 -0.791624
2010-09-01 07:16:01 51°22.716 2°43.349 21.0227 0.339147 1.99716 -0.791624
2010-09-01 07:16:06 51°22.717 2°43.349 21.0306 0.339147 1.99716 -0.791624
2010-09-01 07:16:11 51°22.718 2°43.35 21.0202 0.339147 1.99716 -0.791624
2010-09-01 07:16:17 51°22.719 2°43.351 21.0175 0.339251 1.99791 -0.7568
2010-09-01 07:16:21 51°22.719 2°43.351 21.0217 0.339147 1.997259 -0.826448
2010-09-01 07:16:26 51°22.72 2°43.351 21.0366 0.339043 1.996608 -0.791624
2010-09-01 07:16:31 51°22.721 2°43.352 21.0315 0.339147 1.997325 -0.791624
2010-09-01 07:16:37 51°22.722 2°43.353 21.0303 0.339147 1.997325 -0.791624
2010-09-01 07:16:41 51°22.722 2°43.354 21.0208 0.339251 1.998042 -0.7568
2010-09-01 07:16:46 51°22.723 2°43.354 21.0205 0.339251 1.998009 -0.791624
2010-09-01 07:16:51 51°22.724 2°43.355 21.0164 0.339147 1.997358 -0.791624
2010-09-01 07:16:56 51°22.724 2°43.355 21.0383 0.339251 1.998075 -0.791624
2010-09-01 07:17:01 51°22.725 2°43.356 21.0421 0.339147 1.997457 -0.7568
2010-09-01 07:17:06 51°22.726 2°43.356 21.0328 0.339147 1.997457 -0.7568
2010-09-01 07:17:11 51°22.727 2°43.357 21.0406 0.339147 1.99749 -0.791624
2010-09-01 07:17:16 51°22.727 2°43.357 21.0435 0.339251 1.998207 -0.826448
2010-09-01 07:17:21 51°22.728 2°43.358 21.0318 0.339147 1.997523 -0.791624
2010-09-01 07:17:26 51°22.729 2°43.359 21.034 0.339251 1.99824 -0.791624
2010-09-01 07:17:31 51°22.729 2°43.359 21.041 0.339251 1.99824 -0.791624
2010-09-01 07:17:36 51°22.73 2°43.36 21.0342 0.339251 1.99824 -0.791624
2010-09-01 07:17:41 51°22.731 2°43.36 21.0382 0.339251 1.998274 -0.791624
2010-09-01 07:17:45 51°22.731 2°43.36 21.0421 0.339251 1.998406 -0.826448
2010-09-01 07:17:51 51°22.732 2°43.361 21.0408 0.339147 1.997755 -0.791624
2010-09-01 07:17:56 51°22.732 2°43.362 21.0325 0.339147 1.997722 -0.791624
2010-09-01 07:18:01 51°22.733 2°43.362 21.0387 0.339251 1.998373 -0.826448
2010-09-01 07:18:06 51°22.734 2°43.364 21.0468 0.339251 1.998373 -0.826448
2010-09-01 07:18:11 51°22.734 2°43.364 21.0392 0.339251 1.998472 -0.791624
2010-09-01 07:18:17 51°22.735 2°43.365 21.0406 0.339251 1.998439 -0.791624
2010-09-01 07:18:21 51°22.736 2°43.366 21.0364 0.339356 1.999123 -0.7568
2010-09-01 07:18:25 51°22.736 2°43.366 21.039 0.339251 1.998472 -0.791624
2010-09-01 07:18:31 51°22.737 2°43.367 21.037 0.339251 1.998472 -0.826448
2010-09-01 07:18:36 51°22.737 2°43.368 21.035 0.339251 1.998472 -0.826448
2010-09-01 07:18:41 51°22.738 2°43.368 21.0294 0.339251 1.998571 -0.791624
2010-09-01 07:18:46 51°22.738 2°43.369 21.0283 0.339251 1.998538 -0.826448
2010-09-01 07:18:51 51°22.739 2°43.369 21.0493 0.339251 1.998671 -0.791624
2010-09-01 07:18:56 51°22.74 2°43.371 21.0377 0.339251 1.998704 -0.791624
2010-09-01 07:19:01 51°22.74 2°43.372 21.0274 0.339356 1.999388 -0.791624
2010-09-01 07:19:05 51°22.741 2°43.373 21.0458 0.339356 1.999388 -0.791624
2010-09-01 07:19:11 51°22.741 2°43.373 21.048 0.339356 1.999388 -0.826448